GFSFLT2_con_mlcape_000.txt.gz
CAPE
400 323 68 138 161 246 290 332 284 118 86 83 57 19 0 0 0 0 0 0 0 0 0 0 0 0 0 0 0 0 5 138
430 459 538 374 86 25 67 48 38 16 21 15 70 108 22 0 0 0 0 0 0 0 0 0 0 0 0 0 0 0 0 122
331 391 368 830 247 13 33 7 55 156 316 251 226 492 320 101 2 0 0 0 0 0 0 0 0 0 0 0 0 0 0 0
724 508 454 97 57 169 587 207 595 682 580 549 711 350 262 127 145 119 11 9 0 0 0 0 0 0 0 0 0 0 0 0
1064 853 614 426 14 140 277 308 218 664 721 605 536 305 542 429 417 293 164 65 98 0 0 0 0 0 0 0 0 0 0 0
1241 1003 741 456 452 134 177 251 109 245 311 546 408 326 216 40 16 0 0 0 0 0 0 0 0 0 0 0 0 0 0 0
804 933 606 687 112 477 496 334 362 110 278 235 183 193 97 40 7 0 0 0 0 0 0 0 0 0 0 0 0 0 0 0
954 1202 594 211 220 394 619 414 176 246 46 0 47 74 77 52 8 20 4 1 2 0 0 0 0 0 0 0 0 0 0 0
1244 1429 493 42 77 302 344 7 1 13 8 15 23 41 48 74 51 32 68 70 28 15 25 8 0 2 0 0 0 0 0 0
342 893 282 1 110 55 45 56 36 49 58 38 21 34 30 42 55 53 85 133 79 78 52 35 37 13 15 2 0 0 0 0
586 194 46 0 80 68 78 55 59 21 0 5 0 0 8 6 10 39 58 66 77 122 119 122 138 113 110 73 28 25 0 0
362 241 0 0 46 101 4 1 5 2 0 0 0 0 0 0 1 0 47 74 37 69 126 68 53 60 92 94 99 66 25 27
282 63 39 47 76 0 0 0 0 0 0 0 0 0 0 0 0 0 0 0 0 0 0 0 0 47 49 90 66 95 190 131
72 0 0 0 0 0 0 0 0 0 0 0 0 0 0 0 0 0 0 0 0 0 0 0 0 0 0 19 0 0 21 62
0 0 0 0 0 0 0 0 0 0 0 0 0 0 0 0 0 0 0 0 0 0 0 0 0 0 0 9 5 3 2 2
0 0 0 0 0 0 0 0 0 0 0 0 0 0 0 0 0 0 0 0 0 0 0 0 0 0 0 0 0 0 0 0
0 0 0 0 0 0 0 0 0 0 0 0 0 0 0 0 0 0 0 0 0 0 0 5 6 0 0 0 0 0 0 0
0 0 0 0 0 0 0 0 0 0 0 0 0 0 0 0 0 0 0 0 0 10 10 9 1 0 1 2 0 0 1 1
0 0 0 0 0 0 0 0 0 0 0 0 0 0 0 0 0 0 0 0 10 3 3 19 9 1 0 0 0 0 0 1
0 0 0 0 0 0 0 0 0 0 0 0 0 0 0 0 0 0 0 0 0 0 0 14 20 20 6 2 1 0 0 0

GFSFLT2_con_mlcape_003.txt.gz
CAPE
426 364 257 186 209 225 147 77 37 20 12 24 7 35 0 0 0 0 0 0 0 0 0 0 0 0 0 0 0 0 0 1
123 88 7 1 10 22 11 8 0 0 14 26 115 106 1 0 0 0 0 0 0 0 0 0 0 0 0 0 0 0 0 0
380 394 317 24 0 5 0 0 10 54 144 145 273 331 132 37 28 0 0 0 0 0 0 0 0 0 0 0 0 0 0 0
408 363 673 125 77 52 4 160 286 392 482 392 326 345 259 117 101 101 45 18 13 0 0 0 0 0 0 0 0 0 0 0
355 227 36 196 137 168 248 408 507 556 513 357 395 169 310 154 208 129 34 45 38 37 0 0 0 0 0 0 0 0 0 0
551 430 263 110 0 63 220 324 481 574 597 482 345 168 28 2 0 0 0 0 10 48 19 0 0 0 0 0 0 0 0 0
694 366 165 189 238 220 105 198 90 133 362 262 74 92 15 9 9 0 0 0 0 0 0 0 0 0 0 0 0 0 0 0
760 596 716 380 131 343 388 145 76 174 42 8 17 4 70 39 20 17 6 23 27 2 0 0 0 0 0 0 0 0 0 0
568 552 572 108 208 202 589 6 0 0 1 0 1 23 39 28 23 11 5 28 56 34 21 17 5 0 14 0 0 0 0 0
709 98 187 92 123 109 58 29 14 24 1 3 0 0 0 0 0 0 5 15 9 0 1 29 43 21 5 26 8 0 0 0
618 74 199 71 6 43 38 31 16 1 0 0 0 0 0 0 0 0 0 0 0 0 0 0 0 0 0 0 28 28 23 0
85 113 68 3 33 1 0 0 0 0 0 0 0 0 0 0 0 0 0 0 0 0 0 0 0 0 1 0 29 30 71 24
9 0 0 0 0 0 0 0 0 0 0 0 0 0 0 0 0 0 0 0 0 0 0 0 0 0 0 0 0 0 0 0
0 0 0 0 0 0 0 0 0 0 0 0 0 0 0 0 0 0 0 0 0 0 0 0 0 0 0 0 0 0 0 0
0 0 0 0 0 0 0 0 0 0 0 0 0 0 0 0 0 0 0 0 0 0 0 0 0 0 0 0 0 0 0 0
0 0 0 0 0 0 0 0 0 0 0 0 0 0 0 0 0 0 0 0 0 0 0 0 0 0 0 0 0 0 0 0
0 0 0 0 0 0 0 0 0 0 0 0 0 0 0 0 0 0 0 0 0 0 0 0 0 0 4 0 1 0 0 0
0 0 0 0 0 0 0 0 0 0 0 0 0 0 0 0 0 0 0 0 0 0 0 0 0 8 17 0 5 0 0 0
0 0 0 0 0 0 0 0 0 0 0 0 0 0 0 0 0 0 0 0 0 0 0 0 2 7 5 1 1 0 0 0
0 0 0 0 0 0 0 0 0 0 0 0 0 0 0 0 0 0 0 0 0 0 0 0 2 0 0 0 0 0 0 0

GFSFLT2_con_mlcape_006.txt.gz
CAPE
1081 944 826 615 394 169 109 83 10 18 9 0 0 0 0 0 0 0 0 0 0 0 0 0 0 0 0 0 0 0 0 0
406 305 134 54 58 52 17 0 0 0 0 20 29 0 0 0 0 0 0 0 0 0 0 0 0 0 0 0 0 0 0 0
90 17 0 0 0 0 0 0 0 35 76 187 160 96 2 0 13 2 3 0 0 0 0 0 0 0 0 0 0 0 0 0
180 84 0 0 2 0 0 41 135 192 249 274 271 229 212 75 81 88 55 27 12 13 5 4 0 0 0 0 0 0 0 0
357 294 57 10 34 0 78 189 260 301 436 353 370 389 183 250 84 5 0 0 4 26 24 5 0 0 0 0 0 0 0 0
317 320 275 126 98 98 130 300 449 511 491 322 185 106 0 0 0 0 0 0 0 0 4 0 0 0 0 0 0 0 0 0
258 114 151 108 36 185 264 342 512 578 532 342 49 31 0 0 0 0 0 0 0 0 0 0 0 0 0 0 0 0 0 0
440 45 195 157 179 110 172 104 81 256 286 108 2 0 34 23 2 0 0 1 1 0 0 0 0 0 0 0 0 0 0 0
484 579 421 93 225 307 166 2 7 69 40 1 4 7 18 1 0 0 0 0 0 0 0 0 0 0 0 0 0 0 0 0
635 5 124 61 94 146 159 0 0 0 0 0 0 0 0 0 0 0 0 0 0 0 0 0 0 0 0 0 0 0 0 0
295 66 251 61 54 10 0 0 0 0 0 0 0 0 0 0 0 0 0 0 0 0 0 0 0 0 0 0 0 0 0 0
198 70 89 7 0 0 0 0 0 0 0 0 0 0 0 0 0 0 0 0 0 0 0 0 0 0 0 0 0 0 0 0
14 59 13 0 0 0 0 0 0 0 0 0 0 0 0 0 0 0 0 0 0 0 0 0 0 0 0 0 0 0 0 0
0 0 0 0 0 0 0 0 0 0 0 0 0 0 0 0 0 0 0 0 0 0 0 0 0 0 0 0 0 0 0 0
0 0 0 0 0 0 0 0 0 0 0 0 0 0 0 0 0 0 0 0 0 0 0 0 0 0 0 0 0 0 0 0
0 0 0 0 0 0 0 0 0 0 0 0 0 0 0 0 0 0 0 0 0 0 0 0 0 0 0 0 0 0 0 0
0 0 0 0 0 0 0 0 0 0 0 0 0 0 0 0 0 0 0 0 0 0 0 0 0 0 0 0 0 0 2 0
0 0 0 0 0 0 0 0 0 0 0 0 0 0 0 0 0 0 0 0 0 0 0 0 0 0 0 0 0 2 1 1
0 0 0 0 0 0 0 0 0 0 0 0 0 0 0 0 0 0 0 0 0 0 0 0 0 0 0 0 0 0 0 0
0 0 0 0 0 0 0 0 0 0 0 0 0 0 0 0 0 0 0 0 0 0 0 0 0 0 0 0 0 0 3 1

GFSFLT2_con_mlcape_009.txt.gz
CAPE
1116 1133 1075 948 708 404 168 11 0 0 0 4 0 0 0 0 0 0 0 0 0 0 0 0 0 0 0 0 0 0 0 0
954 884 775 516 307 87 0 0 0 0 0 7 0 0 0 0 0 0 0 0 0 0 0 0 0 0 0 0 0 0 0 0
386 297 164 62 22 0 0 0 0 0 46 67 51 5 0 5 32 16 21 3 0 0 0 0 0 0 0 0 0 0 0 0
25 3 0 0 0 0 0 1 5 62 115 159 118 127 131 89 59 84 101 82 50 20 29 29 28 0 0 0 0 0 0 0
16 0 0 0 0 0 5 43 101 143 255 227 249 253 185 90 71 3 1 15 1 8 19 27 14 0 0 0 0 0 0 0
117 41 0 0 0 0 27 112 189 211 294 312 209 151 15 0 0 0 0 0 0 0 0 0 0 0 0 0 0 0 0 0
323 284 36 6 30 2 125 222 380 446 389 277 143 32 0 0 0 0 0 0 0 0 0 0 0 0 0 0 0 0 0 0
336 365 261 121 59 135 193 275 394 520 435 280 94 0 0 0 0 0 0 0 0 0 0 0 0 0 0 0 0 0 0 0
365 248 123 94 108 135 145 249 126 329 207 83 0 0 0 0 0 0 0 0 0 0 0 0 0 0 0 0 0 0 0 0
330 216 9 7 71 94 11 0 0 5 0 0 0 0 0 0 0 0 0 0 0 0 0 0 0 0 0 0 0 0 0 0
161 60 8 9 0 0 0 0 0 0 0 0 0 0 0 0 0 0 0 0 0 0 0 0 0 0 0 0 0 0 0 0
6 5 0 0 0 0 0 0 0 0 0 0 0 0 0 0 0 0 0 0 0 0 0 0 0 0 0 0 0 0 0 0
0 0 0 0 0 0 0 0 0 0 0 0 0 0 0 0 0 0 0 0 0 0 0 0 0 0 0 0 0 0 0 0
0 0 0 0 0 0 0 0 0 0 0 0 0 0 0 0 0 0 0 0 0 0 0 0 0 0 0 0 0 0 0 0
0 0 0 0 0 0 0 0 0 0 0 0 0 0 0 0 0 0 0 0 0 0 0 0 0 0 0 0 0 0 0 0
0 0 0 0 0 0 0 0 0 0 0 0 0 0 0 0 0 0 0 0 0 0 0 0 0 0 0 0 0 0 0 0
0 0 0 0 0 0 0 0 0 0 0 0 0 0 0 0 0 0 0 0 0 0 0 0 0 0 0 0 0 0 1 4
0 0 0 0 0 0 0 0 0 0 0 0 0 0 0 0 0 0 0 0 0 0 0 0 0 0 0 0 0 4 5 8
0 0 0 0 0 0 0 0 0 0 0 0 0 0 0 0 0 0 0 0 0 0 0 0 0 0 0 0 0 0 0 4
0 0 0 0 0 0 0 0 0 0 0 0 0 0 0 0 0 0 0 0 0 0 0 0 0 0 0 0 0 0 0 0

GFSFLT2_con_mlcape_012.txt.gz
CAPE
770 710 656 638 707 645 459 308 89 21 0 10 0 0 0 0 0 0 0 0 0 0 0 0 0 0 0 0 0 0 0 0
901 843 840 796 645 377 116 24 11 11 2 13 0 0 0 0 0 0 0 0 0 0 0 0 0 0 0 0 0 0 0 0
807 855 814 593 299 118 43 3 0 0 8 67 12 0 0 0 14 7 4 11 2 3 3 0 0 0 0 0 0 0 0 0
623 555 397 191 83 7 0 0 0 53 96 144 52 47 42 43 39 24 19 30 27 26 17 16 9 0 0 0 0 0 0 0
250 112 26 0 0 0 0 0 24 98 162 156 149 167 128 26 6 0 0 0 0 0 0 0 0 0 0 0 0 0 0 0
52 3 0 0 0 0 0 28 64 162 279 253 206 146 26 0 0 0 0 0 0 0 0 0 0 0 0 0 0 0 0 0
30 0 0 0 0 0 1 84 201 242 325 314 153 68 0 0 0 0 0 0 0 0 0 0 0 0 0 0 0 0 0 0
116 25 0 0 0 0 8 116 274 384 372 285 162 7 7 0 0 0 0 0 0 0 0 0 0 0 0 0 0 0 0 0
213 129 48 0 14 24 53 48 108 237 256 78 10 0 0 0 0 0 0 0 0 0 0 0 0 0 0 0 0 0 0 0
186 109 1 3 0 0 1 1 0 0 0 0 0 0 0 0 0 0 0 0 0 0 0 0 0 0 0 0 0 0 0 0
110 23 1 0 0 0 0 0 0 0 0 0 0 0 0 0 0 0 0 0 0 0 0 0 0 0 0 0 0 0 0 0
7 4 0 0 0 0 0 0 0 0 0 0 0 0 0 0 0 0 0 0 0 0 0 0 0 0 0 0 0 0 0 0
0 0 0 0 0 0 0 0 0 0 0 0 0 0 0 0 0 0 0 0 0 0 0 0 0 0 0 0 0 0 0 0
0 0 0 0 0 0 0 0 0 0 0 0 0 0 0 0 0 0 0 0 0 0 0 0 0 0 0 0 0 0 0 0
0 0 0 0 0 0 0 0 0 0 0 0 0 0 0 0 0 0 0 0 0 0 0 0 0 0 0 0 0 0 0 0
0 0 0 0 0 0 0 0 0 0 0 0 0 0 0 0 0 0 0 0 0 0 0 0 0 0 0 0 0 0 2 0
0 0 0 0 0 0 0 0 0 0 0 0 0 0 0 0 0 0 0 0 0 0 0 0 0 0 0 0 0 0 0 21
0 0 0 0 0 0 0 0 0 0 0 0 0 0 0 0 0 0 0 0 0 0 0 0 0 0 0 0 0 0 0 2
0 0 0 0 0 0 0 0 0 0 0 0 0 0 0 0 0 0 0 0 0 0 0 0 0 0 0 0 0 0 0 0
0 0 0 0 0 0 0 0 0 0 0 0 0 0 0 0 0 0 0 0 0 0 0 0 0 0 0 0 0 0 0 0

GFSFLT2_con_mlcape_015.txt.gz
CAPE
1017 1113 968 843 726 714 617 353 110 68 20 1 0 0 0 0 0 0 0 0 0 0 0 0 0 0 0 0 0 0 0 0
925 936 883 818 876 721 478 204 37 6 0 0 0 0 0 0 0 0 0 0 0 0 0 0 0 0 0 0 0 0 0 0
801 744 751 846 769 545 214 25 2 0 35 0 3 9 26 30 7 6 14 7 0 0 0 0 0 0 0 0 0 0 0 0
735 780 782 819 547 342 197 73 59 58 117 149 78 94 137 136 100 21 5 0 0 0 0 0 0 0 0 0 0 0 0 0
656 721 708 538 321 231 39 37 35 102 207 229 203 231 262 182 120 5 0 0 0 0 0 0 0 0 0 0 0 0 0 0
607 614 400 222 120 72 3 25 78 209 343 320 353 377 167 28 0 0 0 0 0 0 0 0 0 0 0 0 0 0 0 0
426 261 89 19 4 6 8 101 236 300 429 505 384 227 41 0 0 0 0 0 0 0 0 0 0 0 0 0 0 0 0 0
202 92 3 0 15 37 25 112 166 194 216 178 127 68 24 0 0 0 0 0 0 0 0 0 0 0 0 0 0 0 0 0
223 41 14 6 57 7 24 4 2 20 13 0 0 0 0 0 0 0 0 0 0 0 0 0 0 0 0 0 0 0 0 0
243 87 22 0 0 0 0 0 0 0 0 0 0 0 0 0 0 0 0 0 0 0 0 0 0 0 0 0 0 0 0 0
260 137 1 0 0 0 0 0 0 0 0 0 0 0 0 0 0 0 0 0 0 0 0 0 0 0 0 0 0 0 0 0
115 1 0 0 0 0 0 0 0 0 0 0 0 0 0 0 0 0 0 0 0 0 0 0 0 0 0 0 0 0 0 0
0 0 0 0 0 0 0 0 0 0 0 0 0 0 0 0 0 0 0 0 0 0 0 0 0 0 0 0 0 0 0 0
9 1 0 0 0 0 0 0 0 0 0 0 0 0 0 0 0 0 0 0 0 0 0 0 0 0 0 0 0 0 0 0
0 0 0 0 0 0 0 0 0 0 0 0 0 0 0 0 0 0 0 0 0 0 0 0 0 0 0 0 0 0 0 0
0 0 0 0 0 0 0 0 0 0 0 0 0 0 0 0 0 0 0 0 0 0 0 0 0 0 0 0 0 0 0 0
0 0 0 0 0 0 0 0 0 0 0 0 0 0 0 0 0 0 0 0 0 0 0 0 0 0 0 0 0 0 0 9
0 0 0 0 0 0 0 0 0 0 0 0 0 0 0 0 0 0 0 0 0 0 0 0 0 0 0 0 0 0 0 1
0 0 0 0 0 0 0 0 0 0 0 0 0 0 0 0 0 0 0 0 0 0 0 0 0 0 0 0 0 0 0 2
0 0 0 0 0 0 0 0 0 0 0 0 0 0 0 0 0 0 0 0 0 0 0 0 0 0 0 0 0 0 8 11

GFSFLT2_con_mlcape_021.txt.gz
CAPE
665 524 461 532 767 614 528 293 145 74 27 0 0 0 0 0 0 0 0 0 0 0 0 0 0 0 0 0 0 0 0 0
764 745 748 897 795 541 348 117 28 22 2 0 0 0 0 0 0 0 0 0 0 0 0 0 0 0 0 0 0 0 0 0
790 748 728 752 777 579 190 24 9 0 0 0 3 35 75 23 0 0 0 0 0 0 0 0 0 0 0 0 0 0 0 0
751 815 756 628 460 367 88 1 0 124 122 63 175 194 296 131 25 0 0 0 0 0 0 0 0 0 0 0 0 0 0 0
824 884 962 426 288 94 0 0 241 463 536 506 503 334 395 280 179 113 162 0 111 20 22 9 0 0 0 0 0 0 0 0
847 810 788 380 108 3 20 169 425 390 503 730 699 650 495 193 139 158 168 120 50 26 36 0 0 0 0 0 0 0 0 0
609 554 412 310 71 240 430 361 825 786 836 987 1015 826 779 328 345 266 176 74 52 22 5 0 0 0 0 0 0 0 0 0
391 305 207 146 397 580 694 521 494 687 835 742 529 536 29 4 16 206 67 48 9 0 0 0 0 0 0 0 0 0 0 0
399 363 294 549 603 69 4 5 20 181 386 364 162 122 116 197 63 58 5 0 0 0 0 0 0 0 0 0 0 0 0 0
622 418 607 437 28 0 0 1 0 38 59 45 33 29 0 0 1 0 0 0 0 0 0 0 0 0 0 0 0 0 0 0
955 739 702 259 37 0 0 0 0 0 0 0 0 0 0 0 0 0 0 0 0 0 0 0 0 0 0 0 0 0 0 0
1156 1059 602 395 38 9 25 46 33 0 0 0 0 0 0 0 0 0 0 0 0 0 0 0 0 0 0 0 0 0 0 0
1063 738 609 311 378 350 206 0 0 0 0 0 0 0 0 0 0 0 0 0 0 0 0 0 0 0 0 0 0 0 0 0
952 730 647 574 445 148 25 57 1 0 0 0 0 0 0 0 0 0 0 0 0 0 0 0 0 0 0 1 0 0 0 0
782 668 550 259 106 11 2 0 0 0 0 0 0 0 0 0 0 0 0 0 0 0 0 0 0 0 0 0 0 0 0 0
597 291 71 14 0 0 0 5 18 0 0 0 0 0 0 0 0 0 0 0 0 0 0 0 0 0 1 2 3 6 4 0
11 0 0 0 0 0 0 0 0 0 0 0 0 0 0 0 0 0 0 0 0 2 5 5 6 12 10 10 1 0 0 0
0 0 0 0 0 0 0 0 0 0 0 0 0 0 0 0 0 0 0 0 1 7 14 12 21 19 3 5 5 2 2 4
0 0 0 0 0 0 0 0 0 0 0 0 0 0 0 0 0 0 0 0 2 9 12 6 18 11 8 13 9 11 14 10
0 0 0 0 0 0 0 0 0 0 0 0 0 0 0 0 0 0 0 1 10 18 6 13 11 10 18 23 21 26 25 11

GFSFLT2_con_mlcape_024.txt.gz
CAPE
158 219 395 514 511 358 175 90 42 21 0 0 0 0 0 0 0 0 0 0 0 0 0 0 0 0 0 0 0 0 0 3
253 398 496 519 417 206 59 37 19 0 0 0 0 0 0 0 2 0 0 0 0 0 0 0 0 0 0 0 0 0 0 0
262 373 605 516 362 155 31 8 0 0 0 0 0 4 11 62 0 0 0 0 0 0 0 0 0 0 0 0 0 0 0 0
376 503 610 643 330 108 3 0 2 1 0 0 64 300 40 31 11 0 0 0 0 0 0 0 0 0 0 0 0 0 0 0
624 636 671 413 178 212 10 0 296 439 367 459 400 351 242 200 231 18 113 16 74 16 59 15 1 0 0 0 0 0 0 0
566 509 491 178 114 49 22 298 497 514 533 649 571 521 448 214 240 189 134 51 37 39 42 3 0 0 0 0 0 0 0 0
567 642 385 104 165 314 525 542 525 662 942 1002 964 757 487 27 5 0 64 31 7 0 0 0 0 0 0 0 0 0 0 0
514 465 297 273 437 518 424 364 290 490 616 591 340 337 13 0 36 35 7 0 0 0 0 0 0 0 0 0 0 0 0 0
395 354 186 669 547 258 17 7 26 141 189 377 230 70 52 5 10 0 0 0 0 0 0 0 0 0 0 0 0 0 0 0
348 275 573 614 207 0 3 1 0 24 12 2 25 19 2 0 1 0 0 0 0 0 0 0 0 0 0 0 0 0 0 0
442 546 636 204 25 2 0 2 4 3 0 0 0 0 0 0 0 0 0 0 0 0 0 0 0 0 0 0 0 0 0 0
599 802 368 251 12 0 7 90 76 0 0 0 0 0 0 0 0 0 0 0 0 0 0 0 0 0 0 0 0 0 0 0
878 642 440 351 21 48 164 57 0 0 0 0 0 0 0 0 0 0 0 0 0 0 0 0 0 0 0 0 0 0 0 0
806 673 448 361 338 339 147 1 0 0 0 0 0 0 0 0 0 0 0 0 0 0 0 0 0 0 0 0 0 0 0 0
761 621 523 591 497 121 3 0 0 0 0 0 0 0 0 0 0 0 0 0 0 0 0 0 0 0 0 0 0 0 0 0
748 602 582 214 17 0 0 0 0 0 0 0 0 0 0 0 0 0 0 0 0 0 0 0 0 0 0 0 0 0 0 0
800 416 31 0 0 0 0 0 0 0 0 0 0 0 0 0 0 0 0 0 0 0 0 0 0 0 0 0 0 0 0 0
27 0 0 0 0 0 0 0 0 0 0 0 0 0 0 0 0 0 0 0 0 0 0 3 2 0 7 0 0 0 0 0
0 0 0 0 0 0 0 0 0 0 0 0 0 0 0 0 0 0 0 0 0 0 0 0 1 0 0 0 0 0 0 2
0 0 0 0 0 0 0 0 0 0 0 0 0 0 0 0 0 0 0 0 0 1 0 2 1 4 0 0 0 0 0 1

GFSFLT2_con_mlcape_027.txt.gz
CAPE
86 205 319 308 143 60 37 12 0 0 0 0 0 0 0 0 0 0 0 0 0 0 0 0 0 0 0 0 0 0 0 0
11 237 334 266 93 25 22 12 0 0 0 0 0 0 0 0 0 0 0 0 0 0 0 0 0 0 0 0 0 0 0 0
29 210 236 182 36 5 0 0 0 0 0 0 0 0 0 0 0 0 0 0 0 0 0 0 0 0 0 0 0 0 0 0
192 213 307 96 5 0 0 0 0 0 0 0 0 6 0 7 0 0 0 0 0 0 0 0 2 0 0 0 0 0 0 0
191 274 316 40 3 0 0 0 0 0 0 4 3 91 0 0 0 0 0 0 2 14 1 0 0 0 0 0 0 0 0 0
190 382 373 66 30 7 0 36 156 110 364 457 235 205 78 4 0 0 3 0 0 0 0 0 0 0 0 0 0 0 0 0
326 361 91 112 128 135 259 434 568 609 500 409 387 192 3 0 0 0 0 0 0 0 0 0 0 0 0 0 0 0 0 0
379 242 57 263 286 255 191 251 436 426 359 219 237 46 0 3 0 0 0 0 0 0 0 0 0 0 0 0 0 0 0 0
445 83 257 270 153 85 0 0 1 0 11 39 72 10 1 0 0 0 0 0 0 0 0 0 0 0 0 0 0 0 0 0
314 175 391 183 95 0 0 0 1 0 0 0 0 3 0 0 0 0 0 0 0 0 0 0 0 0 0 0 0 0 0 0
242 242 339 185 7 0 0 0 0 0 0 0 0 0 0 0 0 0 0 0 0 0 0 0 0 0 0 0 0 0 0 0
291 337 293 115 0 0 0 0 0 0 0 0 0 0 0 0 0 0 0 0 0 0 0 0 0 0 0 0 0 0 0 0
348 276 212 40 0 0 22 21 0 0 0 0 0 0 0 0 0 0 0 0 0 0 0 0 0 0 0 0 0 0 0 0
440 403 267 49 0 2 65 0 0 0 0 0 0 0 0 0 0 0 0 0 0 0 0 0 0 0 0 0 0 0 0 0
519 469 382 273 75 99 11 0 0 0 0 0 0 0 0 0 0 0 0 0 0 0 0 0 0 0 0 0 0 0 0 0
571 494 313 251 211 23 0 0 0 0 0 0 0 0 0 0 0 0 0 0 0 0 0 0 0 0 0 0 0 0 0 0
529 269 284 380 144 0 0 0 0 0 0 0 0 0 0 0 0 0 0 0 0 0 0 0 0 0 0 0 0 0 0 0
405 186 2 0 0 0 0 0 0 0 0 0 0 0 0 0 0 0 0 0 0 0 0 0 0 0 0 0 0 0 0 0
45 0 0 0 0 0 0 0 0 0 0 0 0 0 0 0 0 0 0 0 0 0 0 0 0 0 0 0 0 0 0 0
0 0 0 0 0 0 0 0 0 0 0 0 0 0 0 0 0 0 0 0 0 0 0 0 0 0 0 0 0 0 0 0

GFSFLT2_con_mlcape_030.txt.gz
CAPE
105 105 115 132 100 67 24 1 0 0 1 0 0 0 0 0 0 0 0 0 0 0 0 0 0 0 0 0 0 0 0 0
8 37 121 88 81 38 2 0 0 0 0 0 0 0 0 0 0 0 0 0 0 0 0 0 0 0 0 0 0 0 0 0
0 0 162 89 48 32 2 0 0 0 0 0 0 0 0 0 0 0 0 0 0 0 0 0 0 0 0 0 0 0 0 0
9 42 139 69 32 11 0 0 0 0 0 0 0 0 0 0 0 0 0 0 0 0 0 0 0 0 0 0 0 0 0 0
19 94 124 28 4 0 0 0 0 0 0 0 0 0 0 0 0 0 0 0 0 0 0 0 0 0 0 0 0 0 0 0
67 159 105 7 0 0 0 0 0 0 17 16 67 44 25 4 0 0 0 0 0 0 0 0 0 0 0 0 0 0 0 0
137 153 87 5 0 0 2 32 84 373 303 254 46 1 0 0 0 0 0 0 0 0 0 0 0 0 0 0 0 0 0 0
229 277 33 26 10 22 86 275 397 364 310 202 27 1 0 0 0 0 0 0 0 0 0 0 0 0 0 0 0 0 0 0
371 226 125 110 58 154 281 373 340 276 194 91 39 0 0 0 0 0 0 0 0 0 0 0 0 0 0 0 0 0 0 0
146 270 120 123 78 17 34 1 0 0 0 4 0 0 0 0 0 0 0 0 0 0 0 0 0 0 0 0 0 0 0 0
141 232 126 63 0 0 0 0 0 0 0 0 0 0 0 0 0 0 0 0 0 0 0 0 0 0 0 0 0 0 0 0
244 173 131 14 0 0 0 0 0 0 0 0 0 0 0 0 0 0 0 0 0 0 0 0 0 0 0 0 0 0 0 0
243 173 157 34 0 0 0 0 0 0 0 0 0 0 0 0 0 0 0 0 0 0 0 0 0 0 0 0 0 0 0 0
218 100 156 40 0 0 5 9 0 0 0 0 0 0 0 0 0 0 0 0 0 0 0 0 0 0 0 0 0 0 0 0
244 161 199 73 0 0 3 0 0 0 0 0 0 0 0 0 0 0 0 0 0 0 0 0 0 0 0 0 0 0 0 0
312 235 282 165 0 0 7 0 0 0 0 0 0 0 0 0 0 0 0 0 0 0 0 0 0 0 0 0 0 0 0 0
379 358 351 226 10 0 10 0 0 0 0 0 0 0 0 0 0 0 0 0 0 0 0 0 0 0 0 0 0 0 0 0
419 511 434 224 217 3 12 0 0 0 0 0 0 0 0 0 0 0 0 0 0 0 0 0 0 0 0 0 1 0 0 0
449 146 47 7 69 0 0 0 0 0 0 0 0 0 0 0 0 0 0 0 0 0 0 0 0 0 0 0 0 0 0 0
16 0 0 0 0 0 0 0 0 0 0 0 0 0 0 0 0 0 0 0 0 0 0 0 0 0 0 0 0 0 0 0

GFSFLT2_con_mlcape_033.txt.gz
CAPE
96 61 35 77 70 73 46 71 48 68 66 25 1 0 0 0 0 0 0 0 0 0 0 0 0 0 0 0 0 0 0 0
4 0 33 22 11 41 7 2 27 22 0 0 0 0 0 0 0 0 0 0 0 0 0 0 0 0 0 0 0 0 0 0
2 42 45 61 49 0 0 0 6 4 0 0 0 0 0 0 0 0 0 0 0 0 0 0 0 0 0 0 0 0 0 0
0 0 27 37 17 6 0 0 0 0 0 0 0 0 0 0 0 0 0 0 0 0 0 0 0 0 0 0 0 0 0 0
0 3 120 93 66 18 0 0 0 0 0 0 0 0 0 0 0 0 0 0 0 0 0 0 0 0 0 0 0 0 0 0
0 12 187 70 25 1 0 0 0 0 0 0 8 0 6 0 0 0 0 0 0 0 0 0 0 0 0 0 0 0 0 0
33 132 259 70 5 0 0 0 0 3 15 22 14 2 2 0 0 0 0 0 0 0 0 0 0 0 0 0 0 0 0 0
112 180 250 49 0 0 0 0 21 275 196 80 0 0 0 0 0 0 0 0 0 0 0 0 0 0 0 0 0 0 0 0
116 174 184 45 0 0 2 95 247 273 163 8 0 0 0 0 0 0 0 0 0 0 0 0 0 0 0 0 0 0 0 0
234 253 197 23 0 0 40 236 255 149 102 36 0 0 0 0 0 0 0 0 0 0 0 0 0 0 0 0 0 0 0 0
265 280 216 11 7 90 184 173 55 0 0 0 0 0 0 0 0 0 0 0 0 0 0 0 0 0 0 0 0 0 0 0
351 281 196 41 20 27 6 0 0 0 0 0 0 0 0 0 0 0 0 0 0 0 0 0 0 0 0 0 0 0 0 0
291 180 74 11 0 4 0 0 0 0 0 0 0 0 0 0 0 0 0 0 0 0 0 0 0 0 0 0 0 0 0 0
278 151 58 10 0 0 0 0 0 0 0 0 0 0 0 0 0 0 0 0 0 0 0 0 0 0 0 0 0 0 0 0
354 196 120 24 0 0 0 0 0 0 0 0 0 0 0 0 0 0 0 0 0 0 0 0 0 0 0 0 0 0 0 0
359 259 167 56 0 0 0 0 0 0 0 0 0 0 0 0 0 0 0 0 0 0 0 0 0 0 0 0 0 0 0 0
188 194 101 69 11 0 0 0 0 0 0 0 0 0 0 0 0 0 0 0 0 0 0 0 0 0 0 0 0 0 0 0
69 135 148 82 51 0 0 0 0 0 0 0 0 0 0 0 0 0 0 0 0 0 0 0 0 0 0 0 0 0 0 0
239 241 178 153 179 39 0 0 0 0 0 0 0 0 0 0 0 0 0 0 0 0 0 0 0 0 0 0 0 0 0 0
244 347 184 77 78 15 0 0 0 0 0 0 0 0 0 0 0 0 0 0 0 0 0 0 0 0 0 0 0 0 0 0

GFSFLT2_con_mlcape_039.txt.gz
CAPE
31 5 18 130 83 49 75 148 135 176 213 139 43 1 0 2 0 0 0 0 0 0 0 0 0 0 0 0 0 0 0 0
0 0 0 0 146 119 102 121 204 176 97 32 3 0 0 0 0 0 0 0 0 0 0 0 0 0 0 0 0 0 0 0
0 0 26 63 211 191 170 118 216 123 24 6 3 8 9 0 0 0 0 0 0 0 0 0 0 0 0 0 0 0 0 0
0 2 23 8 100 137 130 172 95 11 0 0 0 0 0 0 0 0 0 0 0 0 0 0 0 0 0 0 0 0 0 0
1 0 27 115 28 8 13 26 2 0 0 0 0 0 0 0 0 0 0 0 0 0 0 0 0 0 0 0 0 0 0 0
1 0 0 0 1 0 7 0 0 0 0 0 0 0 0 0 0 0 0 0 0 0 0 0 0 0 0 0 0 0 0 0
0 0 0 67 110 1 0 0 0 0 0 0 0 0 0 0 0 0 0 0 0 0 0 0 0 0 0 0 0 0 0 0
14 5 47 209 54 0 0 0 0 0 0 9 22 26 0 0 0 0 0 0 0 0 0 0 0 0 0 0 0 0 0 0
0 0 141 256 32 0 0 0 0 0 2 19 8 2 0 0 0 0 0 0 0 0 0 0 0 0 0 0 0 0 0 0
0 5 73 268 35 0 0 0 0 44 59 5 0 0 0 0 0 0 0 0 0 0 0 0 0 0 0 0 0 0 0 0
6 34 61 301 115 0 0 0 9 185 69 9 0 0 0 0 0 0 0 0 0 0 0 0 0 0 0 0 0 0 0 0
67 70 168 253 152 0 0 0 96 118 106 39 0 0 0 0 0 0 0 0 0 0 0 0 0 0 0 0 0 0 0 0
127 183 229 183 115 5 7 57 84 55 13 1 0 0 0 0 0 0 0 0 0 0 0 0 0 0 0 0 0 0 0 0
222 261 219 208 158 39 16 44 16 18 0 0 0 0 0 0 0 0 0 0 0 0 0 0 0 0 0 0 0 0 0 0
254 333 224 205 167 50 0 0 0 0 0 0 0 0 0 0 0 0 0 0 0 0 0 0 0 0 0 0 0 0 0 0
135 267 308 212 98 114 42 49 21 0 0 0 0 0 0 0 0 0 0 0 0 0 0 0 0 0 0 0 0 0 0 0
152 217 305 215 159 140 68 44 0 0 0 0 0 0 0 0 0 0 0 0 0 0 0 0 0 0 0 0 0 0 0 0
267 270 269 190 51 29 32 9 0 0 0 0 0 0 0 0 0 0 0 0 0 0 0 0 0 0 0 0 0 0 0 0
453 357 269 147 52 0 0 0 0 0 0 0 0 0 0 0 0 0 0 0 0 0 0 0 0 0 0 0 0 0 0 0
544 481 418 252 23 62 2 0 0 0 0 0 0 0 0 0 0 0 0 0 0 0 0 0 0 0 0 0 0 0 0 0

GFSFLT2_con_mlcape_042.txt.gz
CAPE
149 80 52 55 155 113 110 131 138 184 177 155 138 110 42 10 0 0 0 0 0 0 0 0 0 0 0 0 0 0 0 0
0 0 0 8 180 139 187 154 167 145 94 74 70 41 4 0 0 0 0 0 0 0 0 0 0 0 0 0 0 0 0 0
1 0 1 0 77 295 231 231 179 89 52 24 0 4 0 0 0 0 0 0 0 0 0 0 0 0 0 0 0 0 0 0
3 0 0 54 208 247 258 197 100 73 21 0 1 15 0 0 0 0 0 0 0 0 0 0 0 0 0 0 0 0 0 0
0 0 0 0 94 248 292 233 185 68 16 8 67 28 0 0 0 0 0 0 0 0 0 0 0 0 0 0 0 0 0 0
0 0 0 0 24 94 136 68 54 23 19 32 48 22 9 6 38 95 23 0 0 0 0 0 0 0 0 0 0 0 0 0
27 32 5 0 0 25 104 101 48 7 7 19 9 0 1 43 42 39 4 0 0 0 0 0 0 0 0 0 0 0 0 0
0 0 0 3 41 68 95 100 18 24 3 65 111 15 38 147 72 14 0 0 0 0 0 0 0 0 0 0 0 0 0 0
0 8 61 51 145 74 1 1 0 0 6 300 312 260 177 86 36 0 0 0 0 0 0 0 0 0 0 0 0 0 0 0
32 5 69 208 230 79 0 0 0 0 190 368 403 326 186 58 2 0 0 0 0 0 0 0 0 0 0 0 0 0 0 0
27 21 61 381 410 72 7 0 0 46 359 372 312 120 30 12 0 0 0 0 0 0 0 0 0 0 0 0 0 0 0 0
2 18 295 417 397 160 0 0 15 306 575 516 306 79 3 0 0 0 0 0 0 0 0 0 0 0 0 0 0 0 0 0
127 216 313 401 501 242 27 1 80 458 620 656 282 174 3 0 0 0 0 0 0 0 0 0 0 0 0 0 0 0 0 0
279 231 316 508 580 470 60 124 60 200 408 567 431 217 0 0 0 0 0 0 0 0 0 0 0 0 0 0 0 0 0 0
323 374 551 553 540 450 128 256 422 456 394 171 153 15 0 0 0 0 0 0 0 0 0 0 0 0 0 0 0 0 0 0
294 424 632 647 622 503 247 146 170 268 245 25 0 0 0 0 0 0 0 0 0 0 0 0 0 0 0 0 0 0 0 0
348 412 761 702 674 609 530 385 310 405 196 0 0 0 0 0 0 0 0 0 0 0 0 0 0 0 0 0 0 0 0 0
433 438 527 740 879 766 810 831 735 255 24 0 0 0 0 0 0 0 0 0 0 0 0 0 0 0 0 0 0 0 0 0
817 645 493 611 602 245 388 538 678 107 10 0 0 0 0 0 0 0 0 0 0 0 0 0 0 0 0 0 0 0 0 0
1176 947 738 627 378 95 167 238 116 18 49 0 0 0 0 0 0 0 0 0 0 0 0 0 0 0 0 0 0 0 0 0

GFSFLT2_con_mlcape_045.txt.gz
CAPE
233 110 291 147 77 96 70 136 251 246 256 245 175 108 49 0 1 8 26 0 0 0 0 0 0 0 0 0 0 0 2 1
0 20 96 126 93 105 143 235 266 295 216 124 94 47 18 9 0 0 0 0 0 0 0 0 0 0 0 0 0 0 0 4
0 0 10 57 95 173 238 323 247 220 193 89 33 16 18 22 4 0 0 0 0 0 0 0 0 0 0 0 0 0 0 0
1 0 0 0 1 133 227 295 218 164 88 52 53 57 74 42 15 0 0 0 0 0 0 0 0 0 0 0 0 0 0 0
1 0 0 0 0 15 218 250 205 149 100 96 120 129 67 28 4 0 0 0 0 0 0 0 0 0 0 0 0 0 0 0
1 7 11 16 36 63 148 217 189 147 117 196 181 155 121 96 26 46 11 0 0 0 0 0 0 0 0 0 0 0 0 0
0 0 1 0 0 12 90 125 75 58 114 196 185 153 133 108 150 175 99 61 5 0 0 0 0 0 0 0 0 0 0 0
0 7 9 4 1 21 100 107 59 203 185 208 183 96 130 117 174 157 79 42 2 0 0 0 0 0 0 0 0 0 0 0
7 0 0 0 0 2 22 133 161 170 140 220 188 142 175 227 254 125 65 27 0 0 0 0 0 0 0 0 0 0 0 0
0 0 0 4 32 40 53 138 98 39 51 205 296 197 258 354 256 163 57 12 0 0 0 0 0 0 0 0 0 0 0 0
0 1 1 29 26 126 63 39 45 0 14 139 444 528 538 402 293 179 39 9 0 0 0 0 0 0 0 0 0 0 0 0
0 2 16 145 272 115 33 0 25 5 25 213 415 530 419 363 264 141 31 0 0 0 0 0 0 0 0 0 0 0 0 0
59 18 0 205 302 78 0 0 0 6 129 270 459 534 382 303 240 133 36 7 0 0 0 0 0 0 0 0 0 0 0 0
39 25 39 265 324 319 31 0 0 6 116 479 592 581 465 291 266 82 18 0 0 0 0 0 0 0 0 0 0 0 0 0
102 138 271 324 318 358 220 10 9 8 136 304 579 560 524 317 245 30 0 0 0 0 0 0 0 0 0 0 0 0 0 0
337 338 345 359 347 444 261 21 97 281 302 417 484 568 465 242 60 2 0 0 0 0 0 0 0 0 0 0 0 0 0 0
411 418 410 506 611 466 540 267 199 325 410 440 492 380 255 77 2 1 0 0 0 0 0 0 0 0 0 0 0 0 0 0
567 441 425 466 617 594 674 593 494 467 486 420 284 203 78 9 0 0 0 0 0 0 0 0 0 0 0 0 0 0 0 0
475 466 354 549 725 736 766 901 808 297 387 466 108 56 2 1 0 0 0 0 0 0 0 0 0 0 0 0 0 0 0 0
730 661 646 535 810 886 463 988 588 282 45 75 2 0 0 0 0 0 0 0 0 0 0 0 0 0 0 0 0 0 0 0

GFSFLT2_con_mlcape_048.txt.gz
CAPE
511 323 288 239 278 187 135 164 185 257 219 168 116 120 199 337 422 271 55 0 0 0 0 0 0 0 0 0 0 0 6 0
36 13 8 33 114 281 352 343 356 334 177 87 38 35 48 89 173 79 1 0 0 0 0 0 0 0 0 0 0 0 0 0
0 0 1 0 5 246 297 336 294 217 122 60 22 5 1 24 75 40 2 0 0 0 0 0 0 0 0 0 0 0 0 0
1 0 0 0 0 60 175 294 259 222 105 58 16 17 92 20 33 12 0 0 0 0 0 0 0 0 0 0 0 0 0 0
0 0 0 0 0 0 19 89 233 220 136 136 155 120 115 50 12 0 0 0 0 0 0 0 0 0 0 0 0 0 0 0
0 0 0 0 2 18 58 162 188 145 176 244 226 148 151 87 33 28 0 0 0 0 0 0 0 0 0 0 0 0 0 0
5 1 0 0 0 2 41 191 156 115 152 197 219 175 198 125 100 77 11 0 0 2 0 0 0 0 0 0 0 0 0 0
4 0 6 2 1 1 18 81 80 52 75 212 205 207 155 213 316 278 189 100 53 0 0 0 0 0 0 0 0 0 0 0
5 5 2 0 0 0 15 93 153 180 181 217 241 265 186 321 195 253 129 85 40 0 0 0 0 0 0 0 0 0 0 0
0 0 0 0 0 21 54 71 88 149 113 191 202 251 183 160 303 231 142 53 14 0 0 0 0 0 0 0 0 0 0 0
0 0 0 0 2 0 0 2 18 45 34 150 217 178 349 315 390 283 111 35 0 0 0 0 0 0 0 0 0 0 0 0
0 0 0 0 12 0 0 2 50 59 42 83 297 421 420 403 332 217 41 26 0 0 0 0 0 0 0 0 0 0 0 0
0 0 0 0 8 0 5 2 3 0 3 18 325 395 425 462 324 197 66 39 0 0 0 0 0 0 0 0 0 0 0 0
0 0 0 4 0 2 60 0 0 8 35 99 494 378 390 360 290 174 65 56 15 0 0 0 0 0 0 0 0 0 0 0
0 0 0 0 72 188 200 9 0 0 2 274 458 555 493 440 294 312 115 69 4 0 0 0 0 0 0 0 0 0 0 0
67 26 5 0 238 285 272 81 17 0 1 307 423 442 469 479 440 355 111 16 0 0 0 0 0 0 0 0 0 0 0 0
155 103 106 190 270 430 269 217 0 28 8 123 304 477 485 530 365 179 56 2 0 0 0 0 0 0 0 0 0 0 0 0
240 232 222 356 258 132 434 375 203 230 438 355 393 388 452 400 280 73 1 0 0 0 0 0 0 0 0 0 0 0 0 1
538 583 477 476 613 426 454 519 522 353 459 375 283 30 143 137 108 12 0 0 0 0 0 0 0 0 0 0 0 0 0 0
680 692 552 585 574 850 596 235 699 578 447 451 218 74 0 73 27 1 0 0 0 0 0 0 0 0 0 0 0 0 0 0

GFSFLT2_con_mlcape_051.txt.gz
CAPE
380 483 279 164 104 118 224 196 125 147 244 405 549 701 711 647 372 15 0 0 0 0 0 0 0 0 0 0 0 0 0 0
197 180 112 24 17 38 242 181 122 88 92 187 411 555 587 421 179 0 0 0 0 0 0 0 0 0 0 0 0 0 0 0
24 3 0 6 0 47 309 251 143 89 57 67 122 216 268 174 58 13 4 0 0 0 0 0 0 0 0 0 0 0 0 0
1 0 0 0 1 7 112 139 64 34 1 0 0 26 83 145 79 28 12 0 0 0 0 0 0 0 0 0 0 0 0 0
0 0 0 0 3 16 40 28 48 17 0 0 52 41 76 68 75 37 4 0 0 0 0 0 0 0 0 0 0 0 0 0
0 0 0 0 0 0 0 0 14 1 74 74 115 28 15 14 11 17 1 0 0 0 0 0 0 0 0 0 0 0 0 0
0 0 0 0 0 0 0 11 26 62 116 113 127 84 25 13 19 0 0 0 0 0 0 0 0 0 0 0 0 0 0 0
1 0 0 0 0 0 0 5 42 56 89 146 209 133 97 73 106 45 0 0 0 0 0 0 0 0 0 0 0 0 0 0
1 0 0 0 0 0 0 0 22 38 40 122 222 195 151 215 169 143 101 33 0 0 0 0 0 0 0 0 0 0 0 0
0 0 0 0 0 0 0 3 41 49 74 121 144 177 245 206 166 179 74 46 0 0 0 0 0 0 0 0 0 0 0 0
0 0 0 0 0 0 0 0 38 36 82 97 87 110 186 114 250 199 80 28 0 0 0 0 0 0 0 0 0 0 0 0
2 1 0 0 0 0 0 0 17 15 1 1 114 36 47 275 238 223 93 7 0 0 0 0 0 0 0 0 0 0 0 0
0 0 0 0 0 0 0 0 2 0 0 0 4 58 110 231 274 191 93 21 0 0 0 0 0 0 0 0 0 0 0 0
0 0 0 0 0 0 0 0 0 21 2 17 4 96 172 278 254 255 110 50 13 0 0 0 0 0 0 0 0 0 0 0
0 0 0 0 0 0 0 0 15 0 0 0 3 129 222 239 333 248 106 38 8 0 0 0 0 0 0 0 0 0 0 0
0 0 0 0 0 0 0 0 7 0 0 0 60 214 259 266 291 205 139 56 27 0 0 0 0 0 0 0 0 0 0 0
0 0 0 0 0 0 0 0 0 0 0 0 76 221 237 180 169 135 152 97 25 0 0 0 0 0 0 0 0 0 0 0
0 0 0 0 0 0 14 63 95 0 0 0 61 145 196 184 80 131 132 41 3 0 0 0 0 0 0 0 0 0 0 0
0 0 0 0 0 0 27 119 109 78 10 9 0 84 160 76 3 71 55 12 0 0 0 0 0 0 0 0 0 0 0 0
0 2 10 3 9 29 143 174 172 166 1 156 82 107 144 33 60 55 11 0 0 0 0 0 0 0 0 0 0 0 0 0

GFSFLT2_con_mlcape_054.txt.gz
CAPE
278 346 379 90 28 1 14 507 524 537 672 724 547 660 222 26 0 0 0 0 0 0 0 0 0 0 0 0 0 0 0 0
191 136 178 6 0 0 0 384 475 485 605 631 575 631 247 0 0 0 0 0 0 0 0 0 0 0 0 0 0 0 0 0
186 31 5 2 0 0 0 260 266 356 481 430 492 390 179 0 0 0 0 0 0 0 0 0 0 0 0 0 0 0 0 0
11 3 0 0 0 17 56 158 194 195 119 131 107 138 62 0 2 0 0 0 0 0 0 0 0 0 0 0 0 0 0 0
2 1 3 2 0 0 129 36 26 9 48 92 121 81 9 0 5 0 0 0 0 0 0 0 0 0 0 0 0 0 0 0
1 2 2 0 13 96 20 6 0 0 14 50 49 20 0 0 0 0 0 0 0 0 0 0 0 0 0 0 0 0 0 0
0 0 0 0 0 0 4 0 0 0 22 9 0 0 0 0 0 0 0 0 0 0 0 0 0 0 0 0 0 0 0 0
0 0 0 0 0 0 0 0 0 23 26 6 5 0 0 0 0 0 0 0 0 0 0 0 0 0 0 0 0 0 0 0
0 0 0 0 0 0 0 0 19 52 42 53 21 5 4 0 0 0 0 0 0 0 0 0 0 0 0 0 0 0 0 0
0 0 0 0 0 0 2 5 43 57 32 85 84 93 63 44 43 55 8 0 0 0 0 0 0 0 0 0 0 0 0 0
0 0 0 0 0 0 0 11 7 25 0 37 97 101 166 172 164 124 103 30 7 0 0 0 0 0 0 0 0 0 0 0
0 0 0 0 0 0 0 0 0 3 3 32 74 54 88 169 123 120 46 11 0 0 0 0 0 0 0 0 0 0 0 0
0 0 0 0 0 0 0 0 0 0 4 15 1 13 39 71 123 105 49 14 0 0 0 0 0 0 0 0 0 0 0 0
0 0 0 0 0 0 0 0 0 0 0 0 0 0 0 0 17 99 52 27 2 0 0 0 0 0 0 0 0 0 0 0
0 0 0 0 0 0 0 0 0 0 0 0 0 0 0 0 69 95 75 28 39 0 0 0 0 0 0 0 0 0 0 0
0 0 0 0 0 0 0 0 0 0 0 0 0 0 0 8 54 99 41 45 34 8 0 0 0 0 0 0 0 0 0 0
0 0 0 0 0 0 0 0 0 0 0 0 0 0 0 10 49 91 53 23 26 18 0 0 0 0 0 0 0 0 0 0
0 0 0 0 0 0 0 0 0 0 0 0 0 0 5 46 110 118 61 31 35 10 0 0 0 0 0 0 0 0 0 0
0 0 0 0 0 0 0 0 0 0 0 0 0 0 13 78 69 96 51 0 8 9 0 0 0 0 0 0 0 0 0 0
0 0 0 0 0 0 0 0 0 0 27 6 0 0 0 2 50 46 0 0 6 0 0 0 0 0 0 0 0 0 0 0

GFSFLT2_con_mlcape_057.txt.gz
CAPE
303 243 191 31 0 0 2 171 358 438 536 400 267 110 0 0 0 0 0 0 0 0 0 0 0 0 0 0 0 0 0 0
384 203 138 6 0 0 0 157 391 345 327 432 236 65 0 0 0 0 0 0 0 0 0 0 0 0 0 0 0 0 0 0
177 73 4 2 2 0 0 84 314 385 451 411 146 19 0 0 0 0 0 0 0 0 0 0 0 0 0 0 0 0 0 0
11 2 1 1 0 0 2 69 227 459 522 439 153 8 0 0 0 0 0 0 0 0 0 0 0 0 0 0 0 0 0 0
3 1 0 0 0 0 15 46 85 139 204 190 103 3 0 0 0 0 0 0 0 0 0 0 0 0 0 0 0 0 0 0
3 2 2 0 0 0 0 52 41 73 135 132 64 0 0 0 0 0 0 0 0 0 0 0 0 0 0 0 0 0 0 0
1 3 3 0 0 0 0 0 0 23 48 77 29 0 0 1 0 0 0 0 0 0 0 0 0 0 0 0 0 0 0 0
0 0 3 3 0 0 0 0 0 1 16 45 5 0 4 3 0 0 0 0 0 0 0 0 0 0 0 0 0 0 0 0
0 0 0 0 0 0 0 0 15 36 29 25 3 0 0 0 0 0 0 0 0 0 0 0 0 0 0 0 0 0 0 0
1 0 0 0 0 20 0 1 19 25 15 27 9 0 0 1 1 0 0 0 0 0 0 0 0 0 0 0 0 0 0 0
1 0 0 0 0 1 3 16 50 60 66 34 26 5 0 9 11 34 1 0 0 0 0 0 0 0 0 0 0 0 0 0
2 0 0 0 1 7 12 34 47 42 49 82 107 115 174 136 116 112 77 25 2 0 0 0 0 0 0 0 0 0 0 0
0 0 0 0 0 2 26 18 28 14 42 29 93 120 111 140 144 101 105 77 62 12 0 0 0 0 0 0 0 0 0 0
1 0 0 0 0 0 0 6 5 18 12 9 39 28 43 45 92 122 84 43 6 0 0 0 0 0 0 0 0 0 0 0
0 0 0 0 0 0 0 0 2 11 9 9 10 3 0 0 0 0 20 37 20 0 0 0 0 0 0 0 0 0 0 0
0 0 0 0 0 0 0 0 0 0 0 0 1 0 0 0 0 0 13 33 19 16 0 0 0 0 0 0 0 0 0 0
0 0 0 0 0 0 0 0 0 0 0 0 0 0 0 0 0 3 5 28 46 20 0 0 0 0 0 0 0 0 0 0
0 0 0 0 0 0 0 0 0 0 0 0 0 0 0 0 0 1 0 4 44 17 0 0 0 0 0 0 0 0 0 0
0 0 0 0 0 0 0 0 0 0 0 0 0 0 0 2 4 7 3 17 42 23 1 0 0 0 0 0 0 0 0 0
0 0 0 0 0 0 0 0 0 0 0 0 0 0 0 0 0 0 4 34 15 0 0 7 0 0 0 0 0 0 0 0

GFSFLT2_con_mlcape_060.txt.gz
CAPE
858 458 301 361 96 0 0 0 113 299 185 229 213 166 112 84 0 0 0 0 0 0 0 0 0 0 0 0 0 0 0 0
551 256 38 9 1 0 0 20 209 330 243 225 231 166 87 0 0 0 0 0 0 0 0 0 0 0 0 0 0 0 0 0
277 48 0 0 0 0 0 0 22 240 256 252 189 70 0 0 0 0 0 0 0 0 0 0 0 0 0 0 0 0 0 0
165 3 2 2 3 1 0 0 0 50 271 237 109 2 0 0 0 0 0 0 0 0 0 0 0 0 0 0 0 0 0 0
13 0 0 0 0 1 0 21 42 37 249 218 55 0 0 0 0 0 0 0 0 0 0 0 0 0 0 0 0 0 0 0
3 43 35 3 2 0 11 0 3 62 113 171 36 0 0 0 0 0 0 0 0 0 0 0 0 0 0 0 0 0 0 0
6 2 0 0 0 0 0 13 7 29 88 178 45 2 0 0 0 0 0 0 0 0 0 0 0 0 0 0 0 0 0 0
3 3 0 0 0 0 0 0 0 16 57 98 35 0 0 0 0 0 0 0 0 0 0 0 0 0 0 0 0 0 0 0
2 3 0 0 0 0 0 0 0 25 43 80 14 0 0 0 0 0 0 0 0 0 0 0 0 0 0 0 0 0 0 0
1 0 3 0 0 0 2 1 10 23 52 61 32 9 7 2 0 0 0 0 0 0 0 0 0 0 0 0 0 0 0 0
1 1 1 0 1 3 15 40 17 66 67 61 58 16 7 3 1 0 0 0 0 0 0 0 0 0 0 0 0 0 0 0
1 0 0 0 0 1 1 18 49 47 63 67 43 16 12 8 6 0 0 0 0 0 0 0 0 0 0 0 0 0 0 0
0 0 0 0 0 0 0 4 5 21 38 35 31 33 26 24 32 48 52 19 6 0 0 0 0 0 0 0 0 0 0 0
1 1 0 0 0 0 7 5 20 46 53 67 83 87 106 135 163 123 101 72 40 38 22 0 0 0 0 0 0 0 0 0
0 0 0 0 0 0 0 0 2 29 22 20 4 16 31 59 95 79 121 59 62 25 1 0 4 0 0 0 0 0 0 0
0 0 0 0 0 0 0 0 1 3 3 21 26 31 8 6 3 7 3 23 24 29 1 0 0 0 0 0 0 0 0 0
0 0 0 0 0 0 0 0 0 0 0 14 15 2 1 0 1 0 0 9 29 7 0 0 0 0 0 0 0 0 0 0
0 0 0 0 0 0 0 0 0 0 0 0 0 0 0 0 0 0 0 1 9 1 1 0 0 0 0 0 0 0 0 0
0 0 0 0 0 0 0 0 0 0 0 0 0 0 0 0 0 0 0 0 0 0 7 6 8 0 0 0 0 0 0 0
0 0 0 0 0 0 0 0 0 0 0 0 0 0 0 0 0 0 1 4 4 0 3 0 0 0 0 0 0 0 0 0

GFSFLT2_con_mlcape_063.txt.gz
CAPE
680 414 383 311 378 199 423 704 799 551 343 242 183 129 82 114 17 0 0 103 0 0 0 0 0 0 0 0 0 0 0 0
778 387 445 576 436 316 263 292 559 435 236 194 142 93 95 79 0 0 46 42 0 0 0 0 0 0 0 0 0 0 0 0
515 316 298 296 118 79 112 99 242 294 219 154 133 186 71 0 0 0 109 0 0 0 0 0 0 0 0 0 0 0 0 0
286 144 40 18 0 0 0 9 22 67 248 190 166 69 0 0 0 0 47 0 0 0 0 0 0 0 0 0 0 0 0 0
101 1 2 2 0 0 1 11 58 47 157 165 123 1 0 0 0 0 13 0 0 0 0 0 0 0 0 0 0 0 0 0
3 3 0 0 2 0 0 0 16 64 126 153 76 0 0 0 0 0 0 0 11 0 0 0 0 0 0 0 0 0 0 0
8 7 4 1 3 1 0 0 13 42 90 128 10 0 0 0 0 0 0 0 0 0 0 0 0 0 0 0 0 0 0 0
4 3 1 2 2 1 5 30 25 13 53 96 19 4 0 0 0 0 0 0 0 0 0 0 0 0 0 0 0 0 0 0
1 1 0 0 2 5 25 15 16 21 86 73 6 0 0 0 0 0 0 0 0 0 0 0 0 0 0 0 0 0 0 0
3 3 1 0 0 0 16 31 28 5 54 77 39 23 8 0 0 0 0 0 0 0 0 0 0 0 0 0 0 0 0 0
2 3 2 0 0 0 14 15 36 6 0 31 60 20 9 2 0 0 0 2 8 0 0 0 0 0 0 0 0 0 0 0
1 3 0 3 0 2 5 26 31 54 7 0 61 18 1 0 5 1 0 0 9 14 0 0 0 0 0 0 0 0 0 0
1 0 1 0 0 1 0 0 23 46 51 15 56 12 4 10 20 10 10 11 4 2 8 0 0 0 0 0 0 0 0 0
1 0 1 1 0 0 0 0 16 42 55 31 50 26 13 35 41 33 37 30 32 22 15 15 3 0 0 0 0 0 0 0
1 1 0 1 0 0 0 0 5 44 41 23 15 41 52 74 88 59 69 113 106 73 25 25 57 1 0 0 0 0 0 0
2 2 1 0 0 0 0 0 0 5 12 29 39 56 78 75 58 67 107 119 130 86 33 57 69 37 0 0 0 0 0 0
1 1 1 0 0 0 0 0 0 0 1 28 43 24 30 19 14 30 37 17 36 74 73 61 61 46 9 0 0 0 0 0
1 0 1 0 0 0 0 0 0 0 0 15 18 17 9 8 8 13 19 14 34 71 86 75 58 22 0 0 0 0 0 0
3 0 0 0 0 0 0 0 0 0 0 0 1 1 1 4 2 8 6 9 11 54 63 51 33 8 6 6 0 0 0 0
1 1 1 0 0 0 0 0 0 0 0 0 0 0 0 0 1 3 0 0 3 49 53 36 10 3 7 1 1 1 2 0

GFSFLT2_con_mlcape_066.txt.gz
CAPE
935 655 550 551 393 605 887 1069 953 782 793 757 614 474 295 261 184 173 152 0 0 0 0 0 0 0 0 0 0 0 0 0
980 1062 837 567 546 496 419 756 672 675 803 703 493 226 164 102 85 146 102 0 0 0 0 0 0 0 0 0 0 0 0 0
921 551 715 666 370 333 357 338 287 443 623 444 207 206 137 72 50 183 32 0 0 0 0 0 0 0 0 0 0 0 0 0
734 563 419 427 338 407 209 165 154 126 306 198 234 197 121 5 61 111 40 0 0 0 0 0 0 0 0 0 0 0 0 0
392 321 266 254 138 31 65 154 72 72 138 137 259 200 15 39 117 139 50 0 0 0 0 0 0 0 0 0 0 0 0 0
41 105 56 6 32 34 2 0 22 17 53 157 208 108 56 56 70 70 20 2 0 0 0 0 0 0 0 0 0 0 0 0
2 2 1 1 0 3 1 0 0 0 1 44 182 114 38 24 57 104 78 115 42 7 0 0 0 0 0 0 0 0 0 0
1 3 4 2 2 1 4 11 5 13 13 82 173 109 52 39 24 14 19 74 73 15 0 0 0 0 0 0 0 0 0 0
1 1 0 2 3 2 0 10 17 13 36 120 175 64 55 66 22 10 15 21 8 6 1 0 0 0 0 0 0 0 0 0
1 3 1 1 3 3 8 3 12 16 55 103 105 80 62 55 25 29 21 11 3 0 0 0 0 0 0 0 0 0 0 0
2 3 1 2 3 12 12 2 3 15 43 96 52 63 55 36 35 23 65 33 3 0 3 0 0 0 0 0 0 0 0 0
3 3 2 4 9 7 15 15 11 20 48 87 64 36 36 28 22 44 66 100 63 41 46 29 10 0 0 0 0 0 0 0
3 2 1 6 4 1 4 2 14 2 16 44 78 76 79 79 40 62 70 103 150 120 127 74 38 20 0 0 0 0 0 0
1 3 5 2 3 0 2 0 12 12 9 20 47 79 22 46 99 60 78 95 119 176 160 121 129 51 109 142 119 16 0 0
4 3 1 4 4 7 0 1 0 15 15 16 28 73 3 2 76 62 124 132 130 149 158 160 158 126 92 121 115 91 137 18
5 4 2 3 4 0 0 0 0 4 0 7 24 53 20 18 91 135 163 161 173 190 206 171 114 131 97 95 144 129 61 35
8 5 4 1 2 0 0 0 0 16 25 24 21 40 59 45 73 137 130 123 125 200 186 218 208 64 96 71 52 77 65 78
6 7 3 3 1 1 0 1 2 12 13 21 15 19 21 29 40 92 81 71 131 136 69 119 110 158 86 190 124 102 73 65
3 7 10 6 2 1 0 0 0 0 0 6 6 0 1 11 38 57 32 43 13 59 58 127 136 129 137 101 138 80 8 11
2 2 2 6 6 6 1 0 0 0 0 0 0 4 3 7 21 31 14 60 88 113 64 88 131 156 174 160 129 39 1 2

GFSFLT2_con_mlcape_069.txt.gz
CAPE
1541 1505 953 402 1 0 0 8 995 960 932 1005 782 462 246 217 232 57 0 0 0 0 0 0 0 0 0 0 0 0 1 0
1679 1447 834 346 70 0 50 199 562 735 986 937 716 491 347 413 321 27 0 0 0 0 0 0 0 0 0 0 0 0 0 0
1307 1224 1046 644 425 335 268 149 152 522 771 546 487 560 400 322 220 33 0 0 0 0 0 0 0 0 0 0 0 2 1 0
882 775 983 825 460 396 264 218 298 324 386 277 290 322 365 315 253 20 0 0 0 0 0 0 0 0 0 0 2 5 1 0
509 618 669 566 519 392 262 244 201 162 163 230 270 170 94 261 236 0 0 0 0 0 0 0 0 0 0 1 1 11 3 0
349 373 420 242 412 256 210 177 124 20 19 37 73 80 105 172 156 0 0 0 0 0 0 2 0 0 0 0 0 11 2 0
25 0 70 59 9 92 156 53 14 1 3 0 0 36 65 192 161 13 0 0 0 0 8 1 0 0 0 0 1 11 4 0
2 1 0 6 56 11 9 31 4 11 1 0 11 40 93 150 89 112 18 36 13 3 15 0 0 0 0 0 0 0 8 4
4 1 1 1 2 2 1 2 1 11 5 28 39 68 140 109 173 166 112 97 90 46 1 0 0 0 0 0 0 0 0 8
6 2 4 1 2 6 0 4 3 1 0 17 21 130 156 172 146 114 100 131 127 48 3 0 0 0 0 0 0 0 0 0
3 3 1 1 2 5 17 2 7 3 0 21 50 125 131 150 119 115 158 119 88 62 17 0 2 0 0 0 0 0 0 0
2 3 2 2 4 6 3 4 4 20 5 42 88 113 131 101 105 127 110 70 49 55 30 37 41 18 0 0 0 0 0 0
2 1 1 2 4 5 2 4 2 15 7 31 72 109 102 106 79 99 136 120 101 103 95 110 64 46 1 0 0 0 0 0
3 2 3 1 6 5 7 0 0 0 0 30 84 83 77 39 41 47 67 157 193 168 148 161 143 117 63 59 59 7 0 0
4 4 3 0 5 5 8 10 14 7 12 16 50 73 82 53 70 104 110 154 229 222 253 211 127 180 141 118 65 93 136 30
7 4 3 2 4 5 2 5 8 0 0 6 18 73 58 77 128 98 152 163 191 233 261 249 109 75 153 144 188 198 124 46
5 3 2 4 5 4 0 0 2 1 0 6 26 36 80 54 84 62 38 181 202 234 199 194 174 40 44 160 141 106 122 98
4 2 4 4 6 5 0 0 2 0 14 8 12 24 62 67 39 16 57 112 194 100 82 70 58 82 42 69 90 72 65 67
6 6 2 3 3 1 7 3 0 0 0 12 8 2 27 67 35 7 1 8 32 54 48 34 52 45 72 55 51 108 114 91
1 4 5 4 2 2 4 3 1 0 0 10 0 0 0 25 19 1 2 4 30 22 41 25 35 53 38 68 100 92 123 178

GFSFLT2_con_mlcape_072.txt.gz
CAPE
1740 1358 744 765 556 110 8 0 18 230 799 988 745 515 371 303 151 98 41 0 0 1 0 0 0 0 0 0 0 0 0 0
1591 1449 1095 329 118 0 0 0 3 42 556 699 535 427 334 258 106 44 3 0 2 0 0 0 0 0 0 0 0 0 0 0
1316 1199 1092 650 125 0 0 0 0 6 630 511 388 397 396 161 59 3 0 0 0 0 0 0 0 0 0 0 0 1 0 0
989 899 799 629 384 41 8 1 0 28 459 370 392 375 430 208 55 11 0 0 0 0 0 0 0 0 0 0 0 2 0 0
275 550 551 564 354 210 178 19 0 5 217 178 286 406 204 103 5 0 0 0 0 0 0 0 0 0 0 0 6 1 0 0
364 365 496 480 384 213 304 176 120 165 103 194 170 77 113 65 0 0 0 0 0 0 0 0 0 0 0 0 15 0 0 0
137 53 256 298 305 211 224 167 121 77 38 30 34 32 42 41 0 0 0 0 0 0 0 0 0 0 0 0 20 6 0 0
0 1 0 37 75 130 95 44 11 5 0 4 5 31 0 7 12 0 4 0 1 0 0 0 0 0 0 0 15 6 0 0
0 0 3 3 23 21 57 7 2 2 0 0 0 0 0 6 76 17 46 12 8 0 0 0 0 0 0 0 1 15 4 0
0 1 4 0 18 9 2 2 2 2 0 0 0 0 0 6 76 100 91 60 92 27 0 0 0 0 0 0 0 0 7 0
0 0 2 2 3 1 5 2 2 2 3 0 0 0 4 45 105 143 172 101 145 7 0 0 0 0 0 0 0 0 0 0
0 0 3 3 7 1 2 2 2 1 3 0 0 0 13 42 62 66 21 17 104 53 18 6 0 0 0 0 0 0 0 0
2 0 0 2 2 2 2 3 2 1 1 1 0 2 47 110 99 139 118 105 85 79 74 61 63 38 1 0 0 0 0 0
1 1 1 0 3 1 1 3 3 1 0 0 4 28 67 64 71 112 108 88 55 81 81 77 67 48 10 2 0 0 0 0
0 1 2 1 3 2 2 1 1 2 0 2 8 25 31 49 55 77 91 89 70 74 71 88 84 84 53 16 34 17 12 0
3 1 1 0 9 1 0 1 1 0 0 0 0 14 46 64 60 70 33 83 153 140 130 121 120 47 76 82 110 137 40 15
2 0 1 0 3 1 0 2 0 0 0 0 1 12 18 39 54 104 85 94 138 143 122 114 78 46 37 22 33 24 39 15
2 5 3 0 2 4 1 0 1 1 0 0 0 0 35 20 32 88 81 81 110 86 76 49 50 27 15 51 20 10 28 25
5 2 3 7 1 2 2 1 0 0 0 0 0 0 1 26 16 50 30 57 120 113 70 51 27 10 0 9 28 41 46 26
0 2 4 6 7 3 1 1 0 2 0 0 0 0 0 1 10 7 16 11 1 4 20 14 18 10 0 6 7 20 25 18

GFSFLT2_con_mlcape_075.txt.gz
CAPE
1521 1326 1244 1218 1200 966 403 86 22 0 0 297 474 699 454 274 179 153 91 11 1 0 0 0 0 0 0 0 0 0 0 0
1744 1238 863 651 381 275 106 74 7 23 2 56 248 428 383 347 229 59 11 12 0 0 0 0 0 0 0 0 0 0 0 0
887 1273 740 346 93 15 0 5 1 0 0 0 241 314 257 179 133 62 14 0 0 0 0 0 0 0 0 0 0 0 0 0
914 870 686 213 63 11 0 0 0 1 1 0 213 195 101 91 33 8 0 0 0 0 0 0 0 0 0 0 0 0 0 0
572 317 277 302 43 0 0 0 0 2 7 2 136 106 58 4 1 0 0 0 0 0 0 0 0 0 0 0 0 0 0 0
273 239 170 195 176 34 0 0 0 1 25 59 113 29 4 1 1 0 0 0 0 0 0 0 0 0 0 0 0 0 0 0
51 62 205 318 245 111 57 12 0 0 100 95 76 23 1 0 0 0 0 0 0 0 0 0 0 0 0 0 0 0 0 0
0 0 1 91 104 81 142 94 30 12 43 28 61 20 0 0 0 0 0 0 0 0 0 0 0 0 0 0 0 0 0 0
0 0 0 1 1 34 37 33 26 10 24 6 22 2 0 0 0 0 0 0 0 0 0 0 0 0 0 0 0 0 0 0
0 0 1 1 1 2 8 13 5 3 1 0 0 0 0 0 0 0 0 0 0 0 1 0 0 0 0 0 0 0 0 0
0 0 1 0 1 8 6 2 1 1 0 0 0 0 0 0 0 0 18 1 7 0 11 0 0 0 0 0 0 0 0 0
0 0 1 0 0 1 2 2 2 2 1 0 0 0 0 0 6 19 60 27 66 29 14 0 0 0 0 0 0 0 0 0
0 1 1 0 1 1 1 1 2 2 0 0 0 0 0 0 14 28 60 79 54 20 5 0 0 0 0 0 0 0 0 0
3 0 2 2 1 1 1 2 1 2 2 0 0 0 0 0 3 1 42 49 56 17 16 5 1 0 0 0 0 0 0 0
0 0 1 3 0 2 2 2 1 1 1 1 0 0 0 0 0 1 13 18 24 26 26 27 35 8 0 0 0 0 0 0
1 0 0 0 1 1 0 2 2 1 0 0 0 0 0 2 9 20 10 10 11 47 51 51 33 6 9 2 17 22 30 9
0 1 2 0 1 1 1 0 1 0 0 0 0 0 1 1 0 0 31 47 54 58 70 45 53 45 31 6 19 31 35 2
1 1 0 1 5 0 0 0 0 0 0 0 0 0 1 0 2 7 14 37 38 41 74 105 97 40 40 33 20 17 17 9
1 0 1 1 3 1 0 0 0 0 0 0 0 0 0 2 11 12 14 11 38 27 98 114 90 50 18 16 30 15 14 26
1 2 1 0 2 2 1 0 0 0 0 0 0 0 0 6 1 22 38 38 36 68 50 71 53 19 13 19 14 16 15 5

GFSFLT2_con_mlcape_078.txt.gz
CAPE
1433 1458 1718 1771 1698 1325 333 50 26 1 0 0 13 262 329 718 672 501 266 149 105 28 0 0 0 0 0 0 0 0 0 0
1421 1301 1313 1397 1460 926 282 250 250 13 22 0 0 134 162 373 531 321 97 55 27 0 0 0 0 0 0 0 0 0 0 0
1394 1038 900 737 703 435 181 149 102 14 1 0 37 63 173 273 330 212 73 32 5 0 0 0 0 0 0 0 0 0 0 0
604 949 781 409 146 118 73 93 45 0 0 0 41 128 162 216 212 109 31 37 20 0 0 0 0 0 0 0 0 0 0 0
713 846 667 298 43 0 9 5 9 0 0 0 63 63 131 178 61 16 0 1 0 0 0 0 0 0 0 0 0 0 0 0
496 285 300 153 2 0 1 0 0 0 2 0 15 78 69 21 1 1 0 0 0 0 0 0 0 0 0 0 0 0 0 0
121 182 182 204 20 2 3 0 0 0 2 0 0 24 5 3 1 0 0 0 0 0 0 0 0 0 0 0 0 0 0 0
19 33 130 198 136 3 13 0 0 0 72 4 15 5 1 1 0 0 0 0 0 0 0 0 0 0 0 0 0 0 0 0
0 0 0 24 116 104 62 12 7 11 98 67 14 1 0 0 0 0 0 0 0 0 0 0 0 0 0 0 0 0 0 0
0 0 0 0 0 74 97 44 7 20 66 67 11 0 0 0 0 0 0 0 0 0 0 0 0 0 0 0 0 0 0 0
0 0 0 0 1 4 11 36 6 8 37 16 1 0 0 0 0 0 0 0 0 0 0 0 0 0 0 0 0 0 0 0
0 0 0 2 2 6 8 23 5 2 3 12 0 0 0 0 0 0 0 0 0 0 0 0 0 0 0 0 0 0 0 0
0 0 1 1 2 3 5 2 1 2 1 0 0 0 0 0 0 0 0 0 0 0 0 0 0 0 0 0 0 0 0 0
0 0 1 0 2 0 1 1 2 1 1 0 0 0 0 0 0 0 4 0 0 0 0 0 0 0 0 0 0 0 0 0
0 0 0 2 0 0 1 0 0 1 1 1 0 0 0 0 0 3 23 3 2 0 2 2 0 0 0 0 0 0 0 0
0 0 0 0 1 1 1 1 1 1 1 0 0 0 0 0 2 14 20 38 21 14 0 1 0 1 0 0 0 0 0 0
0 0 0 0 1 0 1 0 0 0 1 1 0 0 0 0 0 8 17 29 42 35 27 26 13 0 0 5 5 2 20 8
0 0 0 0 0 0 0 0 1 0 0 1 1 0 0 0 2 0 6 11 6 4 17 21 47 45 18 1 12 24 19 19
0 1 1 0 0 0 0 0 0 1 0 0 0 0 0 0 0 0 8 16 0 0 20 54 53 52 43 25 27 31 24 19
0 2 3 2 4 0 0 0 0 0 0 0 0 0 0 0 2 0 0 0 0 12 33 61 73 68 58 40 30 15 21 7

GFSFLT2_con_mlcape_081.txt.gz
CAPE
1426 1684 1711 1587 1523 1392 1064 511 171 25 0 4 149 21 179 321 646 529 550 483 286 208 99 15 11 0 0 0 0 0 0 0
1387 1561 1823 1771 1503 1013 685 367 121 15 0 3 0 3 53 122 276 334 402 303 183 102 6 5 2 0 0 0 0 0 0 0
1275 1302 1121 1268 1352 789 602 304 94 41 13 6 0 0 39 153 138 259 326 259 111 18 0 0 0 0 0 0 0 0 0 0
1156 943 721 717 776 785 320 191 171 65 7 0 0 0 32 109 105 215 240 173 34 0 0 0 0 0 0 0 0 0 0 0
684 826 633 526 437 376 211 130 74 32 21 3 11 13 58 29 108 143 159 124 0 0 0 0 0 0 0 0 0 0 0 0
523 610 523 412 114 85 52 33 24 26 1 0 8 51 100 104 94 96 56 25 0 0 0 0 0 0 0 0 0 0 0 0
380 418 455 259 94 1 1 1 6 25 1 0 58 21 47 125 66 17 1 0 0 0 0 0 0 0 0 0 0 0 0 0
152 157 137 114 7 2 1 0 0 11 1 0 39 50 104 71 8 1 0 0 0 0 0 0 0 0 0 0 0 0 0 0
28 23 94 154 65 2 2 0 0 0 2 0 6 105 73 25 1 0 0 0 0 0 0 0 0 0 0 0 0 0 0 0
0 0 4 78 108 6 3 0 1 0 18 20 3 58 19 3 1 0 0 0 0 0 0 0 0 0 0 0 0 0 0 0
0 0 0 0 1 40 43 3 5 15 69 16 3 2 1 1 0 0 0 0 0 0 0 0 0 0 0 0 0 0 0 0
0 0 0 0 2 6 39 26 4 16 61 29 1 1 0 0 0 0 0 0 0 0 0 0 0 0 0 0 0 0 0 0
0 0 1 3 1 3 3 20 11 7 27 23 4 0 0 0 0 0 0 0 0 0 0 0 0 0 0 0 0 0 0 0
0 0 1 1 0 0 1 10 1 1 1 2 3 0 0 0 0 0 0 0 0 0 0 0 0 0 0 0 0 0 0 0
0 0 0 0 0 0 0 0 1 1 1 1 5 1 0 0 0 0 0 0 0 0 0 0 0 0 0 2 0 0 1 0
0 0 0 0 0 0 1 0 1 0 1 1 2 0 0 0 0 0 0 0 6 1 2 0 0 0 0 0 0 0 0 0
0 0 1 2 0 0 0 1 0 1 1 1 1 1 0 0 0 2 7 0 13 17 17 24 7 1 0 0 0 0 0 0
0 0 0 1 0 0 0 1 0 1 0 1 1 0 0 0 0 8 20 29 11 13 29 34 15 5 0 0 0 5 11 3
0 0 0 0 0 0 0 0 0 0 0 0 1 2 2 0 0 0 4 16 29 35 43 48 46 9 2 0 0 8 8 3
0 0 0 1 0 2 0 0 0 0 0 0 0 0 0 0 0 0 0 13 10 17 16 27 32 14 13 1 13 20 14 20

GFSFLT2_con_mlcape_084.txt.gz
CAPE
1340 1430 1562 1466 1409 1336 1207 988 856 699 415 283 333 266 100 213 350 319 336 452 506 414 259 137 72 30 16 3 0 0 0 0
1348 1500 1564 1578 1525 1142 844 521 436 191 178 204 128 104 184 265 201 248 349 373 404 287 118 109 46 11 0 0 0 0 0 0
1244 1489 1564 1518 1295 958 654 431 225 142 88 21 4 0 29 42 90 146 146 223 324 87 97 82 23 0 0 0 0 0 0 0
1250 1397 1451 1311 1074 933 618 294 25 0 1 1 6 16 14 9 78 96 90 134 126 29 20 7 0 0 0 0 0 0 0 0
1110 1190 1054 856 773 683 398 246 62 3 1 2 0 0 37 14 23 71 55 92 19 1 1 0 0 0 0 0 0 0 0 0
985 991 661 517 512 519 375 291 83 2 12 4 14 11 4 34 68 40 44 37 0 0 0 0 0 0 0 0 0 0 0 0
662 735 617 437 346 298 215 70 82 1 0 3 15 2 5 17 85 51 51 0 0 0 0 0 0 0 0 0 0 0 0 0
527 482 420 258 221 150 73 11 4 1 1 6 49 21 45 50 91 49 3 0 0 0 0 0 0 0 0 0 0 0 0 0
378 341 302 193 105 2 0 0 0 1 2 0 39 34 33 53 48 13 1 0 0 0 0 0 0 0 0 0 0 0 0 0
182 147 108 82 12 1 0 1 1 4 2 0 25 32 41 43 38 45 0 0 0 0 0 0 0 0 0 0 0 0 0 0
103 29 58 100 6 3 3 1 2 1 3 7 10 52 63 55 32 4 0 0 0 0 0 0 0 0 0 0 0 0 0 0
15 1 1 2 13 30 9 3 3 0 2 8 1 6 65 53 1 0 0 0 0 0 0 0 0 0 0 0 0 0 0 0
0 0 0 0 2 1 11 4 4 2 4 53 19 3 30 1 0 0 0 0 0 0 0 0 0 0 0 0 0 0 0 0
0 0 0 1 0 2 3 5 14 16 7 3 1 1 0 0 0 0 0 0 0 0 0 0 0 0 0 0 0 0 0 0
0 0 0 1 2 2 2 7 2 10 24 4 1 0 0 0 0 0 0 0 0 0 0 0 0 0 1 0 0 0 0 0
0 0 0 1 1 1 0 4 11 1 0 2 2 0 0 0 0 0 0 0 0 0 0 0 0 0 0 0 0 0 8 0
0 0 0 1 1 2 2 1 0 0 1 1 2 3 0 0 0 0 0 0 0 0 4 2 0 0 0 3 3 0 0 0
0 0 0 1 0 0 1 1 0 1 1 1 2 2 3 0 0 0 0 0 0 2 21 31 8 4 0 4 2 2 0 2
0 0 1 2 0 0 0 0 0 0 0 2 1 1 2 0 0 0 0 0 13 30 43 50 38 18 9 0 8 7 7 7
0 0 0 1 1 0 0 1 0 0 1 1 1 2 1 1 2 0 0 2 3 37 74 64 62 48 35 11 3 1 3 4

GFSFLT2_con_mlcape_087.txt.gz
CAPE
933 1247 1488 1198 1257 1326 1194 1246 1439 1568 1368 1377 1167 1020 797 604 463 220 421 767 779 628 604 468 291 136 58 22 5 8 45 46
1117 1252 1464 1307 1326 1309 1270 1160 1192 1130 949 829 725 660 523 378 234 162 424 625 641 444 456 294 149 57 14 3 0 0 0 2
1316 1307 1521 1594 1418 1273 1149 1081 880 745 541 350 256 306 245 248 148 188 242 485 424 306 275 181 58 11 0 0 0 0 0 2
1276 1397 1487 1576 1334 992 1023 1029 882 506 321 134 152 166 114 51 36 38 121 232 216 251 166 84 42 31 0 0 0 0 0 0
1189 1308 1466 1319 1142 859 676 593 505 322 74 56 71 26 12 21 56 79 123 98 73 157 133 116 37 27 3 0 0 0 0 0
1028 1260 1343 1237 933 753 584 338 187 168 64 0 0 5 5 9 38 48 78 55 54 124 145 24 0 0 0 0 0 0 0 0
966 1119 1127 1029 858 644 463 317 133 92 10 0 0 0 5 25 57 81 75 7 18 99 15 0 0 0 0 0 0 0 0 1
998 990 1007 840 604 499 373 279 203 55 8 3 1 1 10 55 102 41 54 0 9 27 17 0 0 0 0 0 0 0 0 5
783 906 918 762 471 332 216 93 88 14 2 2 3 7 45 54 77 79 16 0 0 22 12 0 0 0 0 0 0 0 0 7
601 589 578 571 430 231 95 22 1 3 2 2 16 48 87 57 74 48 6 0 0 1 0 0 0 0 0 0 0 0 5 8
471 498 481 380 334 156 31 1 1 2 11 2 30 49 58 78 27 14 1 0 1 0 0 0 0 0 0 0 0 0 3 5
373 325 323 327 176 107 20 2 2 2 2 4 29 47 105 92 10 1 2 1 0 0 0 0 0 0 0 0 1 1 2 4
207 207 158 98 110 85 26 3 6 3 3 13 13 63 66 49 5 1 1 3 0 0 0 0 0 0 0 4 2 2 2 2
125 162 69 38 62 62 52 16 6 4 3 10 8 32 82 10 1 1 2 3 0 0 0 0 0 0 0 0 3 3 5 2
75 87 24 2 2 2 4 10 10 13 11 6 13 10 37 2 0 1 1 0 0 0 0 0 0 0 0 0 4 7 0 2
25 18 7 0 2 3 5 3 9 6 23 0 1 4 3 1 1 0 0 0 0 0 0 0 7 0 0 0 9 8 20 0
1 2 0 0 0 1 2 2 6 12 2 1 2 2 1 1 0 0 0 0 0 0 0 0 8 15 5 7 6 6 13 13
1 0 0 1 1 1 2 4 3 3 1 3 2 2 2 0 0 0 0 0 0 0 0 0 0 4 19 47 29 22 17 20
1 0 1 2 1 1 2 1 2 1 1 2 3 3 2 3 0 0 0 0 0 0 0 0 0 22 42 51 43 39 35 21
2 0 1 2 1 1 1 1 0 0 0 1 2 2 3 0 0 0 0 0 0 0 0 0 17 32 38 37 46 40 47 36

GFSFLT2_con_mlcape_093.txt.gz
CAPE
1795 1229 1093 988 1138 1316 1139 1557 1872 1929 1969 1835 1666 1596 1415 1347 1362 1221 1089 1222 1181 1067 1051 940 836 634 606 503 367 246 493 311
2000 1728 1456 1462 1405 1218 1305 1295 1660 1891 1813 1356 1213 1116 1077 1034 997 1048 945 1069 920 917 893 780 564 451 437 265 242 175 159 256
2148 1847 1709 1654 1562 1521 1272 1331 1322 1561 1674 1459 1172 1204 1155 975 770 893 708 567 411 335 525 512 336 317 233 133 151 247 244 85
2272 2043 1836 1781 1453 1700 1535 1563 1515 1607 1522 1511 1441 1050 1134 918 628 424 311 285 197 221 227 269 259 324 177 126 193 160 78 40
2180 2112 2043 1923 1428 1544 1538 1673 1577 1586 1540 1362 1072 1076 1057 866 652 253 90 15 82 158 100 203 259 392 325 254 227 95 21 25
2319 2033 2133 2043 1716 1630 1519 1475 1820 1708 1604 1677 1440 1302 1107 763 603 216 93 76 115 168 80 88 171 265 279 237 125 87 58 40
2007 1996 2091 2086 2366 1983 1856 1791 1678 1679 1656 1589 1368 1278 1032 870 425 201 268 140 89 29 26 58 98 153 183 159 131 99 50 55
1794 2252 2106 2075 2135 1965 1981 1847 1658 1777 1588 1557 1469 1174 955 561 311 138 111 115 77 32 56 54 96 74 139 119 127 63 27 23
1225 2341 1987 2090 2065 1836 1698 1621 1557 1513 1585 1622 1318 1139 625 399 187 124 179 95 80 60 44 38 65 68 156 158 38 27 17 6
184 1771 1957 1823 1820 1920 1662 1567 1539 1504 1183 1307 1178 916 604 269 83 110 195 120 102 55 23 44 38 63 126 60 29 26 16 7
67 1132 2057 1615 1650 1775 1567 1452 1408 1468 1343 1027 722 493 422 184 220 85 64 41 67 67 17 20 24 56 73 50 28 8 8 8
0 850 2192 1462 1513 1356 1245 1265 1309 1022 888 797 475 334 217 249 132 62 67 30 53 43 31 23 48 90 73 30 26 24 4 3
26 640 2048 1623 1311 1024 1118 1201 942 757 467 342 385 215 71 31 41 77 37 0 24 12 10 23 37 137 65 35 41 44 30 14
39 459 1365 1448 1086 1249 1413 1111 972 611 446 199 162 110 43 13 26 29 7 3 6 3 7 15 32 88 39 29 34 22 36 26
16 369 1078 1377 1399 1409 1288 1015 473 314 228 233 119 36 10 22 25 20 3 2 2 4 11 13 24 27 18 1 17 17 15 5
61 340 1136 1078 1321 1283 1231 650 461 421 326 149 12 4 3 9 18 10 3 2 2 2 18 20 21 37 18 30 0 1 4 12
157 420 996 1052 1354 1191 1123 870 730 424 233 183 14 3 7 16 3 7 9 2 3 11 17 25 29 54 33 14 8 27 26 19
379 602 875 994 1141 1103 1046 827 592 225 342 257 27 5 3 11 8 7 9 5 4 4 17 28 43 79 74 53 50 40 61 40
643 652 859 941 950 934 852 617 365 239 208 173 2 1 2 12 2 2 9 2 4 21 34 55 96 92 87 57 74 92 87 69
262 694 780 880 874 788 523 380 226 208 222 4 1 0 0 1 10 4 12 9 3 15 51 73 63 68 67 53 58 109 108 104

GFSFLT2_con_mlcape_096.txt.gz
CAPE
1396 919 936 903 1035 1046 1149 1234 1549 1693 1728 1701 1720 1506 1271 1279 1314 1216 1098 1132 1102 1180 1192 1074 952 809 718 618 479 265 364 448
1863 1345 1113 799 1000 1101 962 1245 1571 1600 1712 1776 1836 1582 1243 1223 1100 1032 953 1049 939 810 657 496 823 737 598 395 298 233 319 251
2372 1896 1540 1441 1351 1151 1058 1206 1428 1532 1604 1742 1625 1611 1377 1221 1026 881 749 619 478 307 194 231 371 383 422 320 194 174 194 159
2407 2201 1941 1810 1668 1521 1182 1336 1341 1513 1627 1777 1607 1490 1217 1150 926 716 539 454 379 182 12 40 129 175 207 127 100 212 102 60
2525 2212 2118 2080 1535 1804 1446 1549 1422 1559 1703 1786 1830 1399 1214 1178 701 566 409 336 221 91 65 43 70 170 159 133 119 76 73 33
2253 2429 2344 2201 1784 1946 1605 1602 1414 1630 1598 1681 1481 1227 1304 1072 760 436 284 184 65 49 47 64 40 187 146 203 100 11 16 54
2308 2240 2421 2489 2018 1745 1850 1612 1582 1753 1863 1813 1636 1333 1386 1095 939 484 183 36 32 43 18 8 40 47 88 117 122 57 24 29
2331 2232 2280 2387 2096 2077 1715 1865 1965 1900 1783 1836 1630 1485 1450 1100 869 506 292 126 103 23 22 0 1 41 72 105 109 68 37 19
2412 2169 2207 2382 2191 2323 2071 1811 1765 1855 1873 1614 1592 1430 1258 987 789 516 413 284 61 43 47 0 20 54 23 54 114 73 25 16
1352 2390 2257 2223 2335 2244 1683 1976 1690 1555 1598 1783 1586 1568 1253 997 721 513 305 206 96 75 50 43 31 30 17 46 95 16 20 1
0 2517 2421 2161 2154 1725 1449 1486 1737 1443 1332 1361 1649 1514 1183 822 519 446 255 115 72 65 47 35 4 17 4 32 45 16 0 0
0 2175 2372 2117 1911 1572 1512 1376 1291 1539 1461 1147 1130 1212 1011 691 470 291 203 109 81 58 30 22 6 3 37 41 3 2 0 7
0 1060 2311 1913 1741 1479 1316 1183 1118 1106 1353 1318 1062 812 564 500 332 203 119 69 69 37 20 22 14 29 26 26 15 0 0 14
0 608 2208 1738 1559 1360 1183 1000 1019 984 790 845 833 657 422 323 302 176 51 37 8 38 26 18 15 34 18 26 33 22 23 14
0 139 2136 1793 1610 1176 1078 1004 1072 984 802 575 454 444 281 180 224 134 44 11 14 37 15 5 15 17 12 4 6 13 9 21
0 1 388 1865 1433 1107 1073 1357 1059 746 580 411 298 215 180 176 105 60 35 7 9 19 10 2 7 11 16 16 0 0 0 6
0 0 148 1700 1395 1206 1263 1283 855 547 449 357 237 175 192 132 48 31 22 7 8 20 13 7 6 6 10 12 9 3 0 0
0 115 422 1578 1427 1306 1596 1138 905 709 470 451 257 89 24 10 17 17 3 3 6 9 9 16 3 7 10 5 4 30 0 0
187 274 584 1367 1201 1351 1650 1149 854 964 528 338 342 115 15 2 6 13 2 2 2 3 8 7 3 5 22 20 48 54 49 46
563 576 675 1394 1154 1499 1265 949 884 614 314 318 254 41 3 4 3 2 6 2 6 19 16 4 6 8 27 37 92 72 85 76

GFSFLT2_con_mlcape_099.txt.gz
CAPE
709 723 944 936 905 863 1126 1383 1609 1280 1343 1610 1610 1469 1238 1271 1266 1174 1270 1228 1050 1156 1100 968 928 831 657 560 459 494 421 366
1019 632 847 887 909 979 1207 1303 1226 1314 1394 1404 1602 1532 1288 1281 1117 952 948 1112 1124 701 545 407 529 399 421 485 313 402 296 260
1353 724 710 764 882 947 982 1054 1200 1359 1428 1337 1517 1547 1307 1278 1206 997 923 928 643 478 173 182 267 227 138 268 206 232 142 130
1748 1452 854 872 969 960 808 1132 1162 1298 1380 1370 1576 1556 1400 1298 1112 875 741 727 384 219 173 31 11 114 63 95 108 147 102 57
2107 1993 1531 1335 1467 892 802 1005 1193 1227 1302 1345 1558 1454 1302 1125 917 766 606 421 228 50 2 13 40 43 39 61 58 89 50 43
2272 2224 2019 1710 1573 1346 772 917 970 1053 1221 1492 1422 1247 918 755 714 597 488 284 175 0 0 20 74 108 63 85 63 53 26 14
2329 2212 2148 1975 1760 1622 1284 1125 1143 1124 1192 1414 1490 1152 940 747 682 529 430 291 153 0 0 0 18 24 39 58 55 49 44 6
2433 2314 2175 1853 1960 1826 1495 1396 1278 1297 1282 1346 1439 1171 1092 862 692 547 388 344 149 30 0 0 12 23 41 46 32 37 33 14
1547 2350 2301 2053 1838 1836 1757 1556 1475 1457 1541 1497 1479 1249 1158 978 812 648 528 358 178 43 0 0 2 9 7 31 35 48 28 18
217 1980 2324 2313 2130 2001 1746 1693 1694 1555 1576 1576 1427 1298 1195 997 858 708 547 328 156 30 0 0 0 12 18 28 27 42 25 8
0 1430 2156 2395 2178 1969 1891 1682 1490 1553 1546 1493 1414 1267 1172 984 814 743 616 418 146 39 30 7 2 10 13 20 26 2 2 0
0 1128 2014 2253 2118 1900 1719 1590 1553 1325 1319 1455 1367 1306 1098 905 743 652 514 342 158 64 49 50 57 33 14 5 23 0 0 0
0 982 1964 2157 2107 1885 1694 1431 1364 1370 1127 1087 1220 1293 1112 919 758 605 434 307 108 42 34 48 38 30 1 22 14 2 0 0
0 1390 1989 2092 2073 1758 1532 1281 1188 1099 1260 1088 1052 879 917 779 589 463 348 194 79 23 14 31 27 5 2 11 19 0 0 0
0 1553 1927 2035 1851 1433 1212 1065 986 989 902 1071 945 853 656 540 449 323 258 171 88 40 9 23 9 11 12 0 0 0 5 5
1 1568 1955 1827 1576 1395 1123 954 932 877 814 686 690 693 592 461 361 260 175 143 64 37 1 10 17 7 26 1 0 0 0 1
28 1377 1724 1663 1395 1211 1043 892 764 705 630 532 540 463 441 309 261 186 122 61 14 20 8 3 4 7 5 3 0 0 0 0
0 1098 1645 1576 1164 1028 935 914 847 598 448 447 387 293 224 180 143 96 92 49 22 12 10 2 6 2 3 0 0 0 0 0
0 12 1516 1441 1091 1060 999 881 801 681 598 490 368 254 164 137 105 89 68 19 15 19 9 13 6 0 0 0 0 0 1 1
0 126 908 1154 1110 1178 1183 1111 1010 802 593 485 382 228 97 48 38 8 28 12 16 14 23 22 9 1 3 0 0 0 9 23

GFSFLT2_con_mlcape_102.txt.gz
CAPE
573 916 970 1034 1085 1096 1168 1140 1353 1386 1396 1470 1384 1316 1312 1369 1380 1390 1443 1165 1309 1235 923 807 778 760 600 495 524 492 448 434
377 584 933 1051 1122 1099 1227 1241 1354 1245 1373 1531 1538 1358 1279 1293 1328 1320 1211 987 1113 702 716 511 622 591 492 431 480 446 409 375
503 413 665 800 978 1105 1311 1480 1470 1282 1301 1346 1509 1480 1327 1296 1201 1149 963 1046 682 560 533 356 335 276 234 192 271 286 286 248
1153 728 453 733 1016 1151 1284 1437 1246 1220 1226 1124 1361 1476 1320 1295 1212 1072 992 854 642 336 174 100 186 119 115 115 129 106 111 112
1441 1056 578 616 957 1030 1066 1204 1016 1134 1259 1177 1396 1555 1351 1208 1113 971 732 667 447 201 153 194 116 72 71 95 42 62 65 113
1701 1588 1184 671 727 858 920 1106 974 1018 1159 1261 1517 1508 1248 1071 938 714 624 421 233 96 13 3 53 34 22 16 13 58 51 68
1786 1928 1708 1359 896 799 811 907 1091 932 1072 1270 1527 1239 1006 881 769 609 500 354 189 98 50 31 61 38 19 17 7 34 30 40
1985 2116 2011 1778 1385 1093 1029 838 867 983 1083 1242 1438 1164 913 762 595 565 474 363 218 188 139 6 11 78 88 71 40 31 21 30
2128 2136 2236 2092 1862 1460 1408 1233 926 909 994 1240 1395 1177 868 622 585 538 491 357 274 199 95 15 0 12 37 15 25 34 22 30
1622 2259 2240 2210 2136 1688 1562 1413 1151 1120 1163 1130 1205 1231 939 703 638 596 457 408 379 334 184 32 15 12 0 28 45 29 23 31
17 1309 1782 2191 2110 1921 1690 1508 1375 1287 1254 1231 1179 1181 974 867 728 593 490 494 491 411 237 53 12 0 0 3 26 26 19 29
0 293 827 1706 2121 1986 1636 1473 1504 1393 1394 1425 1201 1159 948 868 688 633 533 499 491 342 218 60 3 2 15 23 29 9 8 15
0 5 551 1621 2031 1784 1583 1381 1602 1591 1525 1448 1326 1068 916 838 686 613 611 590 429 305 157 61 16 17 44 3 10 0 6 2
0 2 253 1310 1617 1724 1572 1529 1399 1348 1368 1436 1394 1218 983 824 747 650 623 524 368 242 122 77 43 56 44 33 3 4 0 2
0 0 344 987 1600 1851 1494 1227 983 1138 1138 1136 1134 1139 952 788 690 652 508 417 272 165 109 54 9 16 14 6 2 1 1 0
0 0 396 1349 2015 1735 1573 1345 1217 1268 1139 952 840 763 691 739 687 523 450 322 207 159 118 48 5 9 3 1 0 0 0 0
0 65 1299 1546 1697 1703 1569 1340 1098 948 915 866 833 823 748 583 576 483 412 304 208 140 87 25 2 4 3 2 0 0 0 0
16 1154 1417 1730 1707 1642 1557 1245 1025 901 829 703 688 718 635 586 465 401 303 243 194 127 58 22 25 1 6 1 0 0 0 0
0 1275 1629 1691 1656 1483 1370 1073 829 771 665 575 474 375 406 463 432 351 266 191 142 78 37 4 17 12 1 2 0 0 0 0
0 1092 1552 1552 1275 1281 1052 879 732 644 461 332 341 313 291 288 268 211 165 137 101 43 18 16 14 8 1 2 0 0 0 0

GFSFLT2_con_mlcape_105.txt.gz
CAPE
974 1162 1310 1330 1327 1320 1317 1288 1235 1281 1257 1164 1223 1319 1363 1461 1503 1507 1474 1486 1401 886 686 711 683 673 544 557 585 499 474 480
788 1084 1217 1260 1320 1306 1349 1367 1318 1326 1419 1314 1224 1296 1369 1455 1468 1466 1253 1029 934 942 679 695 711 549 434 461 483 420 385 363
780 855 1055 1107 1138 1299 1383 1497 1435 1429 1517 1503 1345 1344 1392 1449 1455 1407 1095 1065 842 797 639 574 614 451 323 360 387 306 308 309
569 744 869 911 988 1226 1446 1619 1517 1370 1460 1613 1556 1359 1323 1362 1370 1358 1069 1002 769 744 634 488 513 341 238 315 311 264 246 256
505 648 793 774 895 1057 1173 1414 1447 1313 1378 1400 1448 1453 1353 1314 1276 1196 1046 933 652 566 444 287 270 253 181 199 150 141 136 174
907 717 738 833 881 932 1102 1301 1463 1271 1320 1183 1212 1472 1334 1193 1165 956 911 728 477 306 169 100 173 130 172 96 127 104 78 59
1513 1225 988 897 701 665 872 1080 1142 1085 1004 1147 1212 1530 1372 1132 1006 860 748 523 390 203 119 105 121 80 86 119 61 68 42 39
1980 1585 1312 985 782 555 533 808 925 844 985 1052 1256 1511 1296 1125 918 795 664 423 264 226 167 132 151 147 107 38 33 26 17 39
2045 1982 1719 1423 1207 828 544 589 872 876 935 1077 1321 1413 1146 1016 845 725 559 303 219 167 136 91 110 191 182 46 0 9 43 36
499 2188 2072 1883 1654 1390 993 708 662 793 942 952 1193 1332 1085 819 685 644 419 249 203 221 225 251 297 216 157 174 99 64 47 48
0 1094 2126 2247 1941 1727 1480 1105 890 795 799 913 1060 1159 1031 808 637 450 323 260 232 245 303 302 210 129 135 69 43 31 26 58
0 33 1237 2353 2208 1808 1595 1318 1309 1185 1117 907 937 1068 1036 843 518 390 318 318 288 300 313 229 136 56 45 19 14 35 40 37
0 0 667 1753 2210 1916 1730 1631 1475 1348 1305 1136 987 1038 1035 948 605 441 389 395 366 358 330 280 145 50 49 25 16 15 27 38
0 0 140 1183 1931 1949 1830 1653 1482 1404 1266 1241 1181 1053 931 957 789 549 463 418 309 354 313 214 155 59 61 17 23 4 0 8
0 0 19 758 1611 1956 1677 1362 1251 1183 1138 1272 1275 1148 940 908 806 747 586 537 445 385 247 158 155 103 31 27 9 0 0 1
0 0 9 672 1615 1582 1350 932 818 1363 1292 1303 1375 1188 1060 911 692 665 608 548 443 309 233 151 132 91 50 10 0 0 0 0
0 0 0 607 1466 1585 1265 1244 1013 1082 1145 1196 1232 1110 969 925 792 631 538 471 428 296 202 137 95 68 32 18 2 0 0 0
9 124 32 758 1466 1606 1357 1135 1120 1134 1066 1015 904 786 868 797 735 584 594 559 429 310 218 127 85 31 20 9 7 1 0 0
0 738 1448 1580 1719 1595 1493 1339 1046 1046 1030 1002 843 651 568 579 487 472 490 487 428 356 222 133 87 12 17 12 2 0 0 0
2 4 379 1943 1772 1682 1499 1272 991 944 803 819 610 553 574 447 343 388 438 408 386 328 242 149 86 42 14 16 1 0 0 0

GFSFLT2_con_mlcape_108.txt.gz
CAPE
1385 1559 1597 1503 1444 1409 1362 1292 1227 1144 1140 1265 1355 1412 1440 1481 1500 1482 1457 1439 1273 776 726 778 786 643 568 525 598 621 641 609
1370 1500 1582 1518 1489 1467 1405 1403 1375 1306 1217 1284 1360 1348 1439 1500 1486 1375 1282 1267 1140 669 663 709 748 552 574 537 535 510 483 482
1308 1424 1542 1450 1510 1532 1499 1471 1495 1484 1384 1316 1400 1471 1444 1513 1424 1354 1260 1248 1081 684 635 656 641 486 470 510 466 400 345 348
1081 1240 1342 1368 1429 1560 1604 1624 1619 1595 1559 1471 1382 1416 1436 1492 1445 1399 1234 1090 963 769 634 627 571 367 386 455 391 355 318 285
1047 1140 1215 1178 1221 1340 1533 1627 1584 1520 1519 1547 1469 1329 1399 1435 1411 1378 1141 1026 874 806 627 543 476 280 274 268 266 229 236 255
837 1021 1011 876 958 1241 1318 1445 1458 1355 1419 1534 1467 1359 1306 1312 1247 1189 1052 901 614 632 492 352 365 271 247 255 248 217 169 167
1507 969 1033 971 975 1066 1161 1294 1427 1325 1304 1372 1494 1486 1370 1327 1174 1083 971 741 549 394 298 190 197 255 222 264 227 184 129 120
1331 1716 1086 1084 1022 965 852 1101 1282 1422 1363 1338 1262 1250 1417 1294 1079 1054 842 706 450 325 260 181 170 194 243 245 223 240 165 83
15 1020 1734 1306 970 890 866 934 1186 1236 993 1103 1119 1139 1353 1276 1046 968 840 480 384 220 128 102 120 163 195 240 272 279 243 22
0 64 845 1618 1404 1093 814 827 922 791 714 852 1135 1132 1195 1108 1064 901 675 380 302 268 165 146 154 200 223 188 205 224 131 86
0 0 220 912 1634 1441 940 782 718 712 782 820 919 1081 996 1070 1044 784 534 327 266 225 148 152 141 136 201 234 203 140 76 78
0 0 0 469 1517 1576 1270 988 823 770 802 884 893 1011 879 931 866 706 451 259 225 148 215 166 187 153 200 205 203 171 114 100
0 0 0 228 1143 1591 1640 1425 1299 1069 899 833 953 885 940 872 810 620 382 316 198 183 171 212 165 122 155 74 40 56 52 25
0 0 0 4 898 1621 1618 1624 1527 1343 1141 981 897 874 797 881 792 617 423 341 287 204 201 178 143 58 91 55 44 24 7 32
0 0 0 0 727 1799 1777 1755 1504 1236 1173 1171 1109 949 843 832 728 662 487 334 398 334 294 232 194 65 64 77 20 8 0 1
0 0 0 0 754 1403 1544 1521 1385 1180 1197 1303 1196 1004 923 860 793 646 498 452 430 372 314 254 152 97 47 51 5 0 0 0
0 0 0 0 755 1360 1532 1592 1390 1055 1227 1198 1170 1045 947 951 848 773 660 602 475 407 284 251 165 117 69 78 21 4 0 0
0 0 114 0 700 1421 1529 1464 1273 1133 1164 1089 1101 1152 998 890 839 844 766 686 544 400 327 233 191 129 89 34 17 13 0 1
4 1 93 187 889 1644 1781 1493 1304 1025 1120 1124 1124 1085 1036 886 791 791 696 684 560 406 316 277 234 173 102 81 28 11 5 0
6 6 1 6 1505 1623 1722 1532 1316 1149 1061 961 934 747 875 707 706 623 676 642 580 393 370 349 290 234 150 68 43 16 7 0

GFSFLT2_con_mlcape_111.txt.gz
CAPE
1677 1768 1757 1622 1519 1423 1256 1095 1066 1151 1233 1377 1552 1619 1596 1579 1580 1611 1657 1476 1396 1146 912 863 871 841 791 758 813 851 1146 1026
1756 1715 1883 2022 1918 1594 1395 1249 1180 1211 1316 1453 1531 1600 1636 1634 1664 1706 1747 1540 1355 853 835 844 800 715 636 619 670 701 1217 1126
1606 1734 1786 2048 2031 1893 1613 1450 1325 1295 1396 1489 1579 1948 1931 1854 1881 1735 1704 1550 1234 741 795 803 706 596 516 511 544 927 1143 1150
1247 1344 1539 1921 1914 1920 2008 1931 1848 1747 1693 1793 1921 1940 1989 2008 1884 1610 1577 1439 1127 718 710 773 734 894 799 534 897 965 970 992
1125 1178 1320 1599 1686 1717 1870 1919 1853 1847 1784 1776 1873 1884 1891 1867 1958 1818 1784 1477 1403 886 813 1017 1082 989 1006 1010 980 900 892 866
910 1159 1256 1304 1341 1558 1729 1752 1775 1620 1673 1666 1621 1477 1734 1762 1791 1895 1873 1649 1598 1300 1176 1157 1154 953 934 921 899 913 925 678
1089 933 1018 1168 1265 1280 1529 1512 1561 1604 1654 1769 1616 1411 1505 1633 1639 1720 1807 1600 1377 1184 1052 987 990 890 810 820 788 816 741 714
1230 1099 1053 914 900 1133 1393 1340 1431 1493 1800 1854 1789 1656 1527 1555 1512 1532 1534 1390 1213 1141 933 857 881 827 754 798 770 792 699 661
0 513 1451 1268 1083 923 1245 1384 1382 1446 1698 1867 1901 1999 1775 1452 1392 1397 1372 1216 1043 893 842 793 866 692 788 713 702 716 676 602
0 0 543 1369 1503 1320 1122 1081 1278 1562 1672 1690 1750 1850 1707 1400 1239 1266 1247 965 930 818 728 689 697 620 628 579 640 626 635 570
0 0 0 271 1068 1672 1431 1213 1207 1335 1468 1490 1611 1675 1229 1207 1197 993 1026 846 794 818 675 718 544 380 382 432 437 433 424 506
0 0 0 172 1073 1489 1624 1418 1373 1353 1191 1093 1010 1134 1020 1042 1072 988 769 770 664 596 617 481 519 519 300 380 338 238 494 318
0 0 0 0 689 675 1163 1117 1359 1299 1105 1067 918 900 968 966 1014 881 725 803 674 507 475 491 253 154 179 145 125 218 238 154
0 0 0 0 12 797 1011 1013 1367 1392 1160 1001 938 926 956 1024 923 740 712 773 576 484 477 345 264 137 190 187 176 158 155 158
0 0 0 0 0 361 1308 1512 1579 1341 1143 1154 1056 1072 1081 947 839 661 673 666 582 478 459 414 345 103 189 171 86 12 21 80
0 0 0 0 0 0 968 1141 1145 1174 1319 1516 1254 1156 1049 834 856 683 540 560 597 488 397 377 318 197 82 110 191 50 3 2
0 0 0 0 0 4 1043 1341 1416 1361 1599 1602 1394 1125 1045 907 863 728 541 615 606 507 411 356 419 278 119 89 92 60 1 3
1 2 1 0 45 54 943 1386 1473 1570 1660 1440 1377 1253 941 938 730 686 601 567 582 488 477 402 348 276 183 118 89 79 2 6
2 3 5 2 3 145 946 1572 1767 1706 1598 1457 1354 1071 913 839 881 697 657 632 621 611 493 415 390 305 235 195 132 131 47 3
3 3 6 6 6 154 1110 1387 1481 1761 1646 1521 1293 1038 929 844 763 717 700 669 594 577 565 469 371 314 256 212 184 104 66 9

GFSFLT2_con_mlcape_114.txt.gz
CAPE
2494 2059 1903 1550 1323 1170 1062 1096 1336 1616 1772 1865 1968 1911 1751 1727 1755 1780 1809 1705 1543 1406 1137 1019 1007 994 957 912 912 931 930 1024
2661 2257 2244 2177 1991 1416 1251 1128 1156 1332 1636 1863 1908 1843 1752 1747 1803 1815 1799 1674 1575 1454 1157 1029 1020 965 906 885 921 910 1098 825
2271 2175 2139 2512 2446 2114 1518 1339 1279 1313 1454 1661 1814 1955 2002 2046 1882 1849 1861 1742 1628 1285 1064 1024 985 882 801 787 849 886 933 818
2071 2098 1954 2105 2287 2439 2224 2055 1792 1744 1715 1890 1887 1958 2094 2086 2025 1995 1789 1708 1514 1096 986 993 906 1023 911 697 902 689 779 769
1881 1901 2020 2080 2240 2287 2297 2267 2109 2106 2119 2103 1941 2079 2230 2200 2100 1972 1989 1809 1819 1145 1133 1158 1011 938 886 892 769 922 709 682
1873 1956 1828 2048 2131 1975 2133 2348 2221 2227 2269 2282 2043 2274 2224 2104 2137 2039 1984 1934 1804 1514 1343 1197 1207 1147 1088 1035 976 861 598 860
1666 1906 1875 1891 1926 1851 1896 2054 1973 2257 2268 2249 2254 2320 2183 2153 1935 1990 2035 1934 1887 1707 1518 1380 1280 1284 1140 1123 996 945 791 900
0 1117 1899 1890 1861 1855 1853 2028 1889 2099 2045 2124 2165 2112 1952 2019 1982 2016 1988 2043 2056 1879 1679 1594 1484 1277 1175 1049 917 957 813 720
0 0 770 1976 1941 1871 1815 1750 1748 1749 1840 2041 2035 2027 2053 1962 1935 1917 1833 2095 1962 1932 1609 1530 1315 1277 1189 1064 1062 915 729 638
0 0 0 1122 1845 1883 1733 1655 1681 1583 1736 2012 2379 2045 2083 1987 1808 1843 2022 2097 1979 1891 1676 1593 1447 1288 1223 1042 993 839 744 708
0 0 0 15 1249 1829 2096 1913 1793 1646 1692 1809 2024 2292 2454 2273 1931 1669 1713 1806 1819 1837 1737 1509 1400 1233 1156 1082 1047 837 706 626
0 0 0 0 89 1283 1388 1790 2050 1871 1815 1900 1892 2200 2196 2260 1811 1813 1470 1370 1526 1693 1610 1549 1458 1265 1092 986 974 869 713 668
0 0 0 0 0 65 521 1300 1533 1818 2004 2002 2017 2194 2159 2001 1670 1662 1254 1282 1343 1445 1451 1367 1332 1455 1129 989 935 766 718 587
0 0 0 0 0 0 209 690 1168 1258 1725 2200 2153 2021 1991 2016 1703 1547 1317 1217 1110 1132 1068 1020 947 912 718 638 514 549 498 559
0 0 0 0 0 0 0 455 826 1073 1487 2222 2378 1990 1842 1905 1674 1438 1272 1139 964 905 951 890 751 585 925 541 452 250 324 426
0 0 0 0 0 0 0 0 496 963 1260 1584 1816 2133 1962 1822 1644 1424 1189 1094 940 914 836 915 781 514 511 835 470 398 303 252
0 0 0 0 0 0 0 0 315 836 1273 1307 1497 1725 1722 1542 1474 1483 1156 1054 944 864 690 801 725 639 401 473 701 583 343 195
0 0 0 0 0 1 3 6 47 731 936 1423 1579 1681 1429 1365 1320 1340 1171 1081 814 860 795 767 680 660 423 706 557 459 450 248
0 0 1 0 2 2 3 14 189 1057 992 1531 1732 1714 1184 1292 1236 1217 1031 984 887 828 721 656 608 578 798 742 596 357 231 229
1 2 4 2 3 4 3 8 489 1036 1403 1439 1676 1682 1251 1084 1241 1232 1098 1028 968 868 741 654 640 665 924 809 731 499 363 375